Time,TemperatureF,DewpointF,PressureIn,WindDirection,WindDirectionDegrees,WindSpeedMPH,WindSpeedGustMPH,Humidity,HourlyPrecipIn,Conditions,Clouds,dailyrainin,SoftwareType,DateUTC
2013-08-19 00:00:00,80.9,63.7,29.87,SSE,161,0.0,0.0,56,0.00,,,0.00,Wunderground v.1.15,2013-08-19 05:00:00,
2013-08-19 00:01:00,80.9,63.7,29.87,SSE,161,0.0,0.0,56,0.00,,,0.00,Wunderground v.1.15,2013-08-19 05:01:00,
2013-08-19 00:03:00,80.7,63.5,29.87,SSE,161,0.0,0.0,56,0.00,,,0.00,Wunderground v.1.15,2013-08-19 05:03:00,
2013-08-19 00:05:00,80.7,64.1,29.87,SSE,162,0.0,1.0,57,0.00,,,0.00,Wunderground v.1.15,2013-08-19 05:05:00,
2013-08-19 00:07:00,80.7,64.1,29.87,SSE,162,0.0,1.0,57,0.00,,,0.00,Wunderground v.1.15,2013-08-19 05:07:00,
2013-08-19 00:10:00,80.5,63.9,29.87,SSE,162,0.0,0.0,57,0.00,,,0.00,Wunderground v.1.15,2013-08-19 05:10:00,
2013-08-19 00:11:00,80.5,63.9,29.87,SSE,162,0.0,0.0,57,0.00,,,0.00,Wunderground v.1.15,2013-08-19 05:11:00,
2013-08-19 00:15:00,80.3,64.2,29.87,SSE,162,0.0,0.0,58,0.00,,,0.00,Wunderground v.1.15,2013-08-19 05:15:00,
2013-08-19 00:17:00,80.1,64.0,29.87,SSE,162,0.0,0.0,58,0.00,,,0.00,Wunderground v.1.15,2013-08-19 05:17:00,
2013-08-19 00:18:00,80.1,64.0,29.87,SSE,162,0.0,0.0,58,0.00,,,0.00,Wunderground v.1.15,2013-08-19 05:18:00,
2013-08-19 00:20:00,80.1,64.0,29.87,SSE,162,0.0,0.0,58,0.00,,,0.00,Wunderground v.1.15,2013-08-19 05:20:00,
2013-08-19 00:21:00,80.1,64.0,29.87,SSE,162,0.0,0.0,58,0.00,,,0.00,Wunderground v.1.15,2013-08-19 05:21:00,
2013-08-19 00:26:00,79.8,63.7,29.87,SSE,162,0.0,0.0,58,0.00,,,0.00,Wunderground v.1.15,2013-08-19 05:26:00,
2013-08-19 00:29:00,79.8,64.2,29.87,SSE,162,0.0,0.0,59,0.00,,,0.00,Wunderground v.1.15,2013-08-19 05:29:00,
2013-08-19 00:31:00,79.6,64.0,29.87,SSE,162,0.0,0.0,59,0.00,,,0.00,Wunderground v.1.15,2013-08-19 05:31:00,
2013-08-19 00:34:00,79.6,64.0,29.87,SSE,162,0.0,0.0,59,0.00,,,0.00,Wunderground v.1.15,2013-08-19 05:34:00,
2013-08-19 00:35:00,79.6,64.0,29.87,SSE,162,0.0,0.0,59,0.00,,,0.00,Wunderground v.1.15,2013-08-19 05:35:00,
2013-08-19 00:36:00,79.4,63.8,29.87,SSE,162,0.0,0.0,59,0.00,,,0.00,Wunderground v.1.15,2013-08-19 05:36:00,
2013-08-19 00:39:00,79.4,63.8,29.87,SSE,162,0.0,0.0,59,0.00,,,0.00,Wunderground v.1.15,2013-08-19 05:39:00,
2013-08-19 00:41:00,79.4,63.8,29.87,SSE,162,0.0,0.0,59,0.00,,,0.00,Wunderground v.1.15,2013-08-19 05:41:00,
2013-08-19 00:42:00,79.2,64.1,29.87,SSE,162,0.0,0.0,60,0.00,,,0.00,Wunderground v.1.15,2013-08-19 05:42:00,
2013-08-19 00:44:00,79.2,64.1,29.87,SSE,162,0.0,0.0,60,0.00,,,0.00,Wunderground v.1.15,2013-08-19 05:44:00,
2013-08-19 00:45:00,79.2,64.1,29.87,SSE,162,0.0,0.0,60,0.00,,,0.00,Wunderground v.1.15,2013-08-19 05:45:00,
2013-08-19 00:46:00,79.2,64.1,29.87,SSE,162,0.0,0.0,60,0.00,,,0.00,Wunderground v.1.15,2013-08-19 05:46:00,
2013-08-19 00:50:00,79.0,63.9,29.87,SSE,162,0.0,0.0,60,0.00,,,0.00,Wunderground v.1.15,2013-08-19 05:50:00,
2013-08-19 00:51:00,79.0,63.9,29.87,SSE,162,0.0,0.0,60,0.00,,,0.00,Wunderground v.1.15,2013-08-19 05:51:00,
2013-08-19 00:56:00,78.8,64.2,29.87,SSE,162,0.0,0.0,61,0.00,,,0.00,Wunderground v.1.15,2013-08-19 05:56:00,
2013-08-19 00:57:00,78.8,64.2,29.87,SSE,162,0.0,0.0,61,0.00,,,0.00,Wunderground v.1.15,2013-08-19 05:57:00,
2013-08-19 00:58:00,78.8,64.2,29.87,SSE,162,0.0,0.0,61,0.00,,,0.00,Wunderground v.1.15,2013-08-19 05:58:00,
2013-08-19 01:00:00,78.6,64.0,29.87,SSE,162,0.0,0.0,61,0.00,,,0.00,Wunderground v.1.15,2013-08-19 06:00:00,
2013-08-19 01:01:00,78.6,64.0,29.87,SSE,162,0.0,0.0,61,0.00,,,0.00,Wunderground v.1.15,2013-08-19 06:01:00,
2013-08-19 01:03:00,78.6,64.0,29.87,SSE,162,0.0,0.0,61,0.00,,,0.00,Wunderground v.1.15,2013-08-19 06:03:00,
2013-08-19 01:04:00,78.6,64.5,29.87,SSE,162,0.0,0.0,62,0.00,,,0.00,Wunderground v.1.15,2013-08-19 06:04:00,
2013-08-19 01:08:00,78.5,64.4,29.87,SSE,162,0.0,0.0,62,0.00,,,0.00,Wunderground v.1.15,2013-08-19 06:08:00,
2013-08-19 01:10:00,78.3,64.2,29.87,SSE,162,0.0,0.0,62,0.00,,,0.00,Wunderground v.1.15,2013-08-19 06:10:00,
2013-08-19 01:12:00,78.3,64.2,29.87,SSE,162,0.0,0.0,62,0.00,,,0.00,Wunderground v.1.15,2013-08-19 06:12:00,
2013-08-19 01:14:00,78.1,64.0,29.87,SSE,162,0.0,0.0,62,0.00,,,0.00,Wunderground v.1.15,2013-08-19 06:14:00,
2013-08-19 01:17:00,78.1,64.5,29.87,SSE,162,0.0,0.0,63,0.00,,,0.00,Wunderground v.1.15,2013-08-19 06:17:00,
2013-08-19 01:19:00,78.1,64.5,29.87,SSE,162,0.0,0.0,63,0.00,,,0.00,Wunderground v.1.15,2013-08-19 06:19:00,
2013-08-19 01:20:00,78.1,64.5,29.87,SSE,162,0.0,0.0,63,0.00,,,0.00,Wunderground v.1.15,2013-08-19 06:20:00,
2013-08-19 01:22:00,77.9,64.3,29.87,SSE,162,0.0,0.0,63,0.00,,,0.00,Wunderground v.1.15,2013-08-19 06:22:00,
2013-08-19 01:24:00,77.9,64.3,29.87,SSE,162,0.0,0.0,63,0.00,,,0.00,Wunderground v.1.15,2013-08-19 06:24:00,
2013-08-19 01:26:00,77.9,64.3,29.87,SSE,162,0.0,0.0,63,0.00,,,0.00,Wunderground v.1.15,2013-08-19 06:26:00,
2013-08-19 01:27:00,77.9,64.3,29.87,SSE,162,0.0,0.0,63,0.00,,,0.00,Wunderground v.1.15,2013-08-19 06:27:00,
2013-08-19 01:29:00,77.9,64.3,29.87,SSE,162,0.0,0.0,63,0.00,,,0.00,Wunderground v.1.15,2013-08-19 06:29:00,
2013-08-19 01:30:00,77.9,64.3,29.87,SSE,162,0.0,2.0,63,0.00,,,0.00,Wunderground v.1.15,2013-08-19 06:30:00,
2013-08-19 01:31:00,77.9,64.3,29.87,SSE,160,0.0,2.0,63,0.00,,,0.00,Wunderground v.1.15,2013-08-19 06:31:00,
2013-08-19 01:32:00,77.9,64.3,29.87,SSE,160,0.0,2.0,63,0.00,,,0.00,Wunderground v.1.15,2013-08-19 06:32:00,
2013-08-19 01:33:00,77.9,64.3,29.87,SSE,160,0.0,2.0,63,0.00,,,0.00,Wunderground v.1.15,2013-08-19 06:33:00,
2013-08-19 01:37:00,77.7,64.1,29.87,SSE,160,0.0,2.0,63,0.00,,,0.00,Wunderground v.1.15,2013-08-19 06:37:00,
2013-08-19 01:40:00,77.7,64.1,29.87,SSE,160,0.0,0.0,63,0.00,,,0.00,Wunderground v.1.15,2013-08-19 06:40:00,
2013-08-19 01:42:00,77.6,64.0,29.87,SSE,160,0.0,0.0,63,0.00,,,0.00,Wunderground v.1.15,2013-08-19 06:42:00,
2013-08-19 01:44:00,77.6,64.5,29.87,SSE,160,0.0,0.0,64,0.00,,,0.00,Wunderground v.1.15,2013-08-19 06:44:00,
2013-08-19 01:45:00,77.6,64.5,29.87,SSE,160,0.0,0.0,64,0.00,,,0.00,Wunderground v.1.15,2013-08-19 06:45:00,
2013-08-19 01:49:00,77.4,64.3,29.87,SSE,160,0.0,0.0,64,0.00,,,0.00,Wunderground v.1.15,2013-08-19 06:49:00,
2013-08-19 01:50:00,77.2,64.1,29.87,SSE,160,0.0,0.0,64,0.00,,,0.00,Wunderground v.1.15,2013-08-19 06:50:00,
2013-08-19 01:51:00,77.2,64.1,29.87,SSE,160,0.0,0.0,64,0.00,,,0.00,Wunderground v.1.15,2013-08-19 06:51:00,
2013-08-19 01:54:00,77.0,64.3,29.87,SSE,160,0.0,0.0,65,0.00,,,0.00,Wunderground v.1.15,2013-08-19 06:54:00,
2013-08-19 01:56:00,77.0,64.3,29.87,SSE,160,0.0,0.0,65,0.00,,,0.00,Wunderground v.1.15,2013-08-19 06:56:00,
2013-08-19 01:57:00,76.8,64.1,29.87,SSE,160,0.0,0.0,65,0.00,,,0.00,Wunderground v.1.15,2013-08-19 06:57:00,
2013-08-19 01:58:00,76.8,64.1,29.87,SSE,160,0.0,0.0,65,0.00,,,0.00,Wunderground v.1.15,2013-08-19 06:58:00,
2013-08-19 02:01:00,76.8,64.1,29.87,SSE,160,0.0,0.0,65,0.00,,,0.00,Wunderground v.1.15,2013-08-19 07:01:00,
2013-08-19 02:02:00,76.7,64.0,29.87,SSE,160,0.0,0.0,65,0.00,,,0.00,Wunderground v.1.15,2013-08-19 07:02:00,
2013-08-19 02:03:00,76.7,64.0,29.87,SSE,160,0.0,0.0,65,0.00,,,0.00,Wunderground v.1.15,2013-08-19 07:03:00,
2013-08-19 02:07:00,76.5,63.9,29.87,SSE,160,0.0,0.0,65,0.00,,,0.00,Wunderground v.1.15,2013-08-19 07:07:00,
2013-08-19 02:08:00,76.5,63.9,29.87,SSE,160,0.0,0.0,65,0.00,,,0.00,Wunderground v.1.15,2013-08-19 07:08:00,
2013-08-19 02:09:00,76.5,63.9,29.87,SSE,160,0.0,0.0,65,0.00,,,0.00,Wunderground v.1.15,2013-08-19 07:09:00,
2013-08-19 02:12:00,76.3,64.1,29.87,SSE,160,0.0,0.0,66,0.00,,,0.00,Wunderground v.1.15,2013-08-19 07:12:00,
2013-08-19 02:13:00,76.3,64.1,29.87,SSE,160,0.0,0.0,66,0.00,,,0.00,Wunderground v.1.15,2013-08-19 07:13:00,
2013-08-19 02:14:00,76.3,64.1,29.87,SSE,160,0.0,0.0,66,0.00,,,0.00,Wunderground v.1.15,2013-08-19 07:14:00,
2013-08-19 02:16:00,76.1,63.9,29.87,SSE,160,0.0,0.0,66,0.00,,,0.00,Wunderground v.1.15,2013-08-19 07:16:00,
2013-08-19 02:18:00,76.1,63.9,29.87,SSE,160,0.0,0.0,66,0.00,,,0.00,Wunderground v.1.15,2013-08-19 07:18:00,
2013-08-19 02:19:00,76.1,63.9,29.87,SSE,160,0.0,0.0,66,0.00,,,0.00,Wunderground v.1.15,2013-08-19 07:19:00,
2013-08-19 02:22:00,76.0,63.8,29.87,SSE,160,0.0,0.0,66,0.00,,,0.00,Wunderground v.1.15,2013-08-19 07:22:00,
2013-08-19 02:23:00,76.0,63.8,29.87,SSE,160,0.0,0.0,66,0.00,,,0.00,Wunderground v.1.15,2013-08-19 07:23:00,
2013-08-19 02:26:00,76.0,64.2,29.87,SSE,160,0.0,0.0,67,0.00,,,0.00,Wunderground v.1.15,2013-08-19 07:26:00,
2013-08-19 02:27:00,75.8,64.1,29.87,SSE,160,0.0,0.0,67,0.00,,,0.00,Wunderground v.1.15,2013-08-19 07:27:00,
2013-08-19 02:29:00,75.8,64.1,29.87,SSE,160,0.0,0.0,67,0.00,,,0.00,Wunderground v.1.15,2013-08-19 07:29:00,
2013-08-19 02:31:00,75.8,64.1,29.87,SSE,160,0.0,0.0,67,0.00,,,0.00,Wunderground v.1.15,2013-08-19 07:31:00,
2013-08-19 02:33:00,75.8,64.1,29.87,SSE,160,0.0,0.0,67,0.00,,,0.00,Wunderground v.1.15,2013-08-19 07:33:00,
2013-08-19 02:35:00,75.6,63.9,29.87,SSE,160,0.0,0.0,67,0.00,,,0.00,Wunderground v.1.15,2013-08-19 07:35:00,
2013-08-19 02:37:00,75.6,63.9,29.87,SSE,160,0.0,0.0,67,0.00,,,0.00,Wunderground v.1.15,2013-08-19 07:37:00,
2013-08-19 02:39:00,75.6,63.9,29.87,SSE,160,0.0,0.0,67,0.00,,,0.00,Wunderground v.1.15,2013-08-19 07:39:00,
2013-08-19 02:42:00,75.4,63.7,29.87,SSE,160,0.0,0.0,67,0.00,,,0.00,Wunderground v.1.15,2013-08-19 07:42:00,
2013-08-19 02:43:00,75.4,63.7,29.87,SSE,160,0.0,0.0,67,0.00,,,0.00,Wunderground v.1.15,2013-08-19 07:43:00,
2013-08-19 02:45:00,75.4,63.7,29.87,SSE,160,0.0,0.0,67,0.00,,,0.00,Wunderground v.1.15,2013-08-19 07:45:00,
2013-08-19 02:48:00,75.4,63.7,29.87,SSE,160,0.0,0.0,67,0.00,,,0.00,Wunderground v.1.15,2013-08-19 07:48:00,
2013-08-19 02:49:00,75.3,63.6,29.87,SSE,160,0.0,0.0,67,0.00,,,0.00,Wunderground v.1.15,2013-08-19 07:49:00,
2013-08-19 02:50:00,75.3,63.6,29.87,SSE,160,0.0,0.0,67,0.00,,,0.00,Wunderground v.1.15,2013-08-19 07:50:00,
2013-08-19 02:51:00,75.3,63.6,29.87,SSE,160,0.0,0.0,67,0.00,,,0.00,Wunderground v.1.15,2013-08-19 07:51:00,
2013-08-19 02:52:00,75.3,63.6,29.87,SSE,160,0.0,0.0,67,0.00,,,0.00,Wunderground v.1.15,2013-08-19 07:52:00,
2013-08-19 02:57:00,75.1,63.4,29.87,SSE,160,0.0,0.0,67,0.00,,,0.00,Wunderground v.1.15,2013-08-19 07:57:00,
2013-08-19 02:58:00,75.1,63.4,29.87,SSE,160,0.0,0.0,67,0.00,,,0.00,Wunderground v.1.15,2013-08-19 07:58:00,
2013-08-19 02:59:00,75.1,63.4,29.87,SSE,160,0.0,0.0,67,0.00,,,0.00,Wunderground v.1.15,2013-08-19 07:59:00,
2013-08-19 03:03:00,75.1,63.8,29.87,SSE,160,0.0,0.0,68,0.00,,,0.00,Wunderground v.1.15,2013-08-19 08:03:00,
2013-08-19 03:04:00,75.1,63.8,29.87,SSE,160,0.0,0.0,68,0.00,,,0.00,Wunderground v.1.15,2013-08-19 08:04:00,
2013-08-19 03:05:00,75.1,63.8,29.87,SSE,160,0.0,0.0,68,0.00,,,0.00,Wunderground v.1.15,2013-08-19 08:05:00,
2013-08-19 03:06:00,75.1,63.8,29.87,SSE,160,0.0,0.0,68,0.00,,,0.00,Wunderground v.1.15,2013-08-19 08:06:00,
2013-08-19 03:09:00,74.9,63.6,29.87,SSE,160,0.0,0.0,68,0.00,,,0.00,Wunderground v.1.15,2013-08-19 08:09:00,
2013-08-19 03:12:00,74.9,63.6,29.87,SSE,160,0.0,0.0,68,0.00,,,0.00,Wunderground v.1.15,2013-08-19 08:12:00,
2013-08-19 03:13:00,74.9,63.6,29.87,SSE,160,0.0,0.0,68,0.00,,,0.00,Wunderground v.1.15,2013-08-19 08:13:00,
2013-08-19 03:14:00,74.9,63.6,29.87,SSE,160,0.0,0.0,68,0.00,,,0.00,Wunderground v.1.15,2013-08-19 08:14:00,
2013-08-19 03:15:00,74.9,63.6,29.87,SSE,160,0.0,0.0,68,0.00,,,0.00,Wunderground v.1.15,2013-08-19 08:15:00,
2013-08-19 03:18:00,74.7,63.4,29.88,SSE,160,0.0,0.0,68,0.00,,,0.00,Wunderground v.1.15,2013-08-19 08:18:00,
2013-08-19 03:19:00,74.7,63.4,29.88,SSE,160,0.0,0.0,68,0.00,,,0.00,Wunderground v.1.15,2013-08-19 08:19:00,
2013-08-19 03:20:00,74.7,63.4,29.88,SSE,160,0.0,0.0,68,0.00,,,0.00,Wunderground v.1.15,2013-08-19 08:20:00,
2013-08-19 03:21:00,74.7,63.4,29.88,SSE,160,0.0,0.0,68,0.00,,,0.00,Wunderground v.1.15,2013-08-19 08:21:00,
2013-08-19 03:23:00,74.7,63.4,29.88,SSE,160,0.0,0.0,68,0.00,,,0.00,Wunderground v.1.15,2013-08-19 08:23:00,
2013-08-19 03:24:00,74.7,63.4,29.88,SSE,160,0.0,0.0,68,0.00,,,0.00,Wunderground v.1.15,2013-08-19 08:24:00,
2013-08-19 03:26:00,74.7,63.9,29.88,SSE,160,0.0,0.0,69,0.00,,,0.00,Wunderground v.1.15,2013-08-19 08:26:00,
2013-08-19 03:27:00,74.7,63.9,29.88,SSE,160,0.0,0.0,69,0.00,,,0.00,Wunderground v.1.15,2013-08-19 08:27:00,
2013-08-19 03:29:00,74.6,63.8,29.88,SSE,160,0.0,0.0,69,0.00,,,0.00,Wunderground v.1.15,2013-08-19 08:29:00,
2013-08-19 03:31:00,74.6,63.8,29.88,SSE,160,0.0,0.0,69,0.00,,,0.00,Wunderground v.1.15,2013-08-19 08:31:00,
2013-08-19 03:33:00,74.6,63.8,29.88,SSE,160,0.0,0.0,69,0.00,,,0.00,Wunderground v.1.15,2013-08-19 08:33:00,
2013-08-19 03:35:00,74.4,63.6,29.88,SSE,160,0.0,0.0,69,0.00,,,0.00,Wunderground v.1.15,2013-08-19 08:35:00,
2013-08-19 03:38:00,74.4,63.6,29.88,SSE,160,0.0,0.0,69,0.00,,,0.00,Wunderground v.1.15,2013-08-19 08:38:00,
2013-08-19 03:40:00,74.2,63.4,29.88,SSE,160,0.0,0.0,69,0.00,,,0.00,Wunderground v.1.15,2013-08-19 08:40:00,
2013-08-19 03:41:00,74.2,63.4,29.88,SSE,160,0.0,0.0,69,0.00,,,0.00,Wunderground v.1.15,2013-08-19 08:41:00,
2013-08-19 03:42:00,74.2,63.4,29.88,SSE,160,0.0,0.0,69,0.00,,,0.00,Wunderground v.1.15,2013-08-19 08:42:00,
2013-08-19 03:43:00,74.2,63.4,29.88,SSE,160,0.0,0.0,69,0.00,,,0.00,Wunderground v.1.15,2013-08-19 08:43:00,
2013-08-19 03:45:00,74.2,63.4,29.88,SSE,160,0.0,0.0,69,0.00,,,0.00,Wunderground v.1.15,2013-08-19 08:45:00,
2013-08-19 03:47:00,74.2,63.4,29.88,SSE,160,0.0,0.0,69,0.00,,,0.00,Wunderground v.1.15,2013-08-19 08:47:00,
2013-08-19 03:48:00,74.2,63.4,29.88,SSE,160,0.0,0.0,69,0.00,,,0.00,Wunderground v.1.15,2013-08-19 08:48:00,
2013-08-19 03:50:00,74.2,63.4,29.88,SSE,160,0.0,0.0,69,0.00,,,0.00,Wunderground v.1.15,2013-08-19 08:50:00,
2013-08-19 03:51:00,74.2,63.4,29.88,SSE,160,0.0,0.0,69,0.00,,,0.00,Wunderground v.1.15,2013-08-19 08:51:00,
2013-08-19 03:53:00,74.2,63.4,29.88,SSE,160,0.0,0.0,69,0.00,,,0.00,Wunderground v.1.15,2013-08-19 08:53:00,
2013-08-19 03:56:00,74.2,63.4,29.88,SSE,160,0.0,0.0,69,0.00,,,0.00,Wunderground v.1.15,2013-08-19 08:56:00,
2013-08-19 03:57:00,74.2,63.4,29.88,SSE,160,0.0,0.0,69,0.00,,,0.00,Wunderground v.1.15,2013-08-19 08:57:00,
2013-08-19 03:58:00,74.2,63.4,29.88,SSE,160,0.0,0.0,69,0.00,,,0.00,Wunderground v.1.15,2013-08-19 08:58:00,
2013-08-19 04:01:00,74.0,63.2,29.88,SSE,160,0.0,0.0,69,0.00,,,0.00,Wunderground v.1.15,2013-08-19 09:01:00,
2013-08-19 04:02:00,74.0,63.2,29.87,SSE,160,0.0,0.0,69,0.00,,,0.00,Wunderground v.1.15,2013-08-19 09:02:00,
2013-08-19 04:03:00,74.0,63.2,29.87,SSE,160,0.0,0.0,69,0.00,,,0.00,Wunderground v.1.15,2013-08-19 09:03:00,
2013-08-19 04:04:00,74.0,63.2,29.87,SSE,160,0.0,0.0,69,0.00,,,0.00,Wunderground v.1.15,2013-08-19 09:04:00,
2013-08-19 04:06:00,74.0,63.2,29.87,SSE,160,0.0,0.0,69,0.00,,,0.00,Wunderground v.1.15,2013-08-19 09:06:00,
2013-08-19 04:07:00,74.0,63.2,29.87,SSE,160,0.0,0.0,69,0.00,,,0.00,Wunderground v.1.15,2013-08-19 09:07:00,
2013-08-19 04:11:00,73.9,63.1,29.87,SSE,160,0.0,0.0,69,0.00,,,0.00,Wunderground v.1.15,2013-08-19 09:11:00,
2013-08-19 04:12:00,73.9,63.1,29.87,SSE,160,0.0,0.0,69,0.00,,,0.00,Wunderground v.1.15,2013-08-19 09:12:00,
2013-08-19 04:13:00,73.9,63.5,29.87,SSE,160,0.0,0.0,70,0.00,,,0.00,Wunderground v.1.15,2013-08-19 09:13:00,
2013-08-19 04:14:00,73.9,63.5,29.87,SSE,160,0.0,0.0,70,0.00,,,0.00,Wunderground v.1.15,2013-08-19 09:14:00,
2013-08-19 04:18:00,73.9,63.5,29.87,SSE,160,0.0,0.0,70,0.00,,,0.00,Wunderground v.1.15,2013-08-19 09:18:00,
2013-08-19 04:19:00,73.9,63.5,29.87,SSE,160,0.0,0.0,70,0.00,,,0.00,Wunderground v.1.15,2013-08-19 09:19:00,
2013-08-19 04:20:00,73.7,63.3,29.87,SSE,160,0.0,0.0,70,0.00,,,0.00,Wunderground v.1.15,2013-08-19 09:20:00,
2013-08-19 04:21:00,73.7,63.3,29.87,SSE,160,0.0,0.0,70,0.00,,,0.00,Wunderground v.1.15,2013-08-19 09:21:00,
2013-08-19 04:22:00,73.7,63.3,29.87,SSE,160,0.0,0.0,70,0.00,,,0.00,Wunderground v.1.15,2013-08-19 09:22:00,
2013-08-19 04:26:00,73.7,63.7,29.87,SSE,160,0.0,0.0,71,0.00,,,0.00,Wunderground v.1.15,2013-08-19 09:26:00,
2013-08-19 04:27:00,73.5,63.5,29.87,SSE,160,0.0,0.0,71,0.00,,,0.00,Wunderground v.1.15,2013-08-19 09:27:00,
2013-08-19 04:28:00,73.5,63.5,29.87,SSE,160,0.0,0.0,71,0.00,,,0.00,Wunderground v.1.15,2013-08-19 09:28:00,
2013-08-19 04:32:00,73.5,63.5,29.87,SSE,160,0.0,0.0,71,0.00,,,0.00,Wunderground v.1.15,2013-08-19 09:32:00,
2013-08-19 04:33:00,73.5,63.5,29.87,SSE,160,0.0,0.0,71,0.00,,,0.00,Wunderground v.1.15,2013-08-19 09:33:00,
2013-08-19 04:34:00,73.5,63.5,29.87,SSE,160,0.0,0.0,71,0.00,,,0.00,Wunderground v.1.15,2013-08-19 09:34:00,
2013-08-19 04:36:00,73.3,63.3,29.87,SSE,160,0.0,0.0,71,0.00,,,0.00,Wunderground v.1.15,2013-08-19 09:36:00,
2013-08-19 04:38:00,73.3,63.3,29.87,SSE,160,0.0,0.0,71,0.00,,,0.00,Wunderground v.1.15,2013-08-19 09:38:00,
2013-08-19 04:39:00,73.3,63.3,29.87,SSE,160,0.0,0.0,71,0.00,,,0.00,Wunderground v.1.15,2013-08-19 09:39:00,
2013-08-19 04:41:00,73.3,63.3,29.87,SSE,160,0.0,0.0,71,0.00,,,0.00,Wunderground v.1.15,2013-08-19 09:41:00,
2013-08-19 04:43:00,73.3,63.7,29.87,SSE,160,0.0,0.0,72,0.00,,,0.00,Wunderground v.1.15,2013-08-19 09:43:00,
2013-08-19 04:47:00,73.3,63.7,29.87,SSE,160,0.0,0.0,72,0.00,,,0.00,Wunderground v.1.15,2013-08-19 09:47:00,
2013-08-19 04:48:00,73.3,63.7,29.87,SSE,160,0.0,0.0,72,0.00,,,0.00,Wunderground v.1.15,2013-08-19 09:48:00,
2013-08-19 04:49:00,73.3,63.7,29.87,SSE,160,0.0,0.0,72,0.00,,,0.00,Wunderground v.1.15,2013-08-19 09:49:00,
2013-08-19 04:51:00,73.3,63.7,29.87,SSE,160,0.0,0.0,72,0.00,,,0.00,Wunderground v.1.15,2013-08-19 09:51:00,
2013-08-19 04:52:00,73.2,63.6,29.87,SSE,160,0.0,0.0,72,0.00,,,0.00,Wunderground v.1.15,2013-08-19 09:52:00,
2013-08-19 04:54:00,73.2,63.6,29.87,SSE,160,0.0,0.0,72,0.00,,,0.00,Wunderground v.1.15,2013-08-19 09:54:00,
2013-08-19 04:56:00,73.2,63.6,29.87,SSE,160,0.0,0.0,72,0.00,,,0.00,Wunderground v.1.15,2013-08-19 09:56:00,
2013-08-19 04:57:00,73.2,63.6,29.87,SSE,160,0.0,0.0,72,0.00,,,0.00,Wunderground v.1.15,2013-08-19 09:57:00,
2013-08-19 04:59:00,73.2,63.6,29.87,SSE,160,0.0,0.0,72,0.00,,,0.00,Wunderground v.1.15,2013-08-19 09:59:00,
2013-08-19 05:01:00,73.2,63.6,29.87,SSE,160,0.0,0.0,72,0.00,,,0.00,Wunderground v.1.15,2013-08-19 10:01:00,
2013-08-19 05:02:00,73.2,63.6,29.87,SSE,160,0.0,0.0,72,0.00,,,0.00,Wunderground v.1.15,2013-08-19 10:02:00,
2013-08-19 05:03:00,73.2,63.6,29.87,SSE,160,0.0,0.0,72,0.00,,,0.00,Wunderground v.1.15,2013-08-19 10:03:00,
2013-08-19 05:04:00,73.2,63.6,29.87,SSE,160,0.0,0.0,72,0.00,,,0.00,Wunderground v.1.15,2013-08-19 10:04:00,
2013-08-19 05:08:00,73.2,63.6,29.87,SSE,160,0.0,0.0,72,0.00,,,0.00,Wunderground v.1.15,2013-08-19 10:08:00,
2013-08-19 05:09:00,73.2,63.6,29.87,SSE,160,0.0,0.0,72,0.00,,,0.00,Wunderground v.1.15,2013-08-19 10:09:00,
2013-08-19 05:11:00,73.2,63.6,29.87,SSE,160,0.0,0.0,72,0.00,,,0.00,Wunderground v.1.15,2013-08-19 10:11:00,
2013-08-19 05:12:00,73.2,63.6,29.87,SSE,160,0.0,0.0,72,0.00,,,0.00,Wunderground v.1.15,2013-08-19 10:12:00,
2013-08-19 05:13:00,73.2,63.6,29.87,SSE,160,0.0,0.0,72,0.00,,,0.00,Wunderground v.1.15,2013-08-19 10:13:00,
2013-08-19 05:14:00,73.2,63.2,29.87,SSE,160,0.0,0.0,71,0.00,,,0.00,Wunderground v.1.15,2013-08-19 10:14:00,
2013-08-19 05:18:00,73.2,63.2,29.87,SSE,160,0.0,0.0,71,0.00,,,0.00,Wunderground v.1.15,2013-08-19 10:18:00,
2013-08-19 05:19:00,73.2,63.6,29.87,SSE,160,0.0,0.0,72,0.00,,,0.00,Wunderground v.1.15,2013-08-19 10:19:00,
2013-08-19 05:21:00,73.2,63.6,29.87,SSE,160,0.0,0.0,72,0.00,,,0.00,Wunderground v.1.15,2013-08-19 10:21:00,
2013-08-19 05:24:00,73.2,63.6,29.87,SSE,160,0.0,0.0,72,0.00,,,0.00,Wunderground v.1.15,2013-08-19 10:24:00,
2013-08-19 05:25:00,73.2,63.6,29.87,SSE,160,0.0,0.0,72,0.00,,,0.00,Wunderground v.1.15,2013-08-19 10:25:00,
2013-08-19 05:26:00,73.2,63.6,29.87,SSE,160,0.0,0.0,72,0.00,,,0.00,Wunderground v.1.15,2013-08-19 10:26:00,
2013-08-19 05:27:00,73.2,63.6,29.87,SSE,160,0.0,0.0,72,0.00,,,0.00,Wunderground v.1.15,2013-08-19 10:27:00,
2013-08-19 05:31:00,73.0,63.4,29.87,SSE,160,0.0,0.0,72,0.00,,,0.00,Wunderground v.1.15,2013-08-19 10:31:00,
2013-08-19 05:32:00,73.0,63.4,29.87,SSE,160,0.0,0.0,72,0.00,,,0.00,Wunderground v.1.15,2013-08-19 10:32:00,
2013-08-19 05:34:00,73.0,63.4,29.87,SSE,160,0.0,0.0,72,0.00,,,0.00,Wunderground v.1.15,2013-08-19 10:34:00,
2013-08-19 05:35:00,73.0,63.4,29.87,SSE,160,0.0,0.0,72,0.00,,,0.00,Wunderground v.1.15,2013-08-19 10:35:00,
2013-08-19 05:37:00,73.0,63.8,29.87,SSE,160,0.0,0.0,73,0.00,,,0.00,Wunderground v.1.15,2013-08-19 10:37:00,
2013-08-19 05:39:00,73.0,63.4,29.87,SSE,160,0.0,0.0,72,0.00,,,0.00,Wunderground v.1.15,2013-08-19 10:39:00,
2013-08-19 05:40:00,72.8,63.2,29.87,SSE,160,0.0,0.0,72,0.00,,,0.00,Wunderground v.1.15,2013-08-19 10:40:00,
2013-08-19 05:41:00,72.8,63.2,29.87,SSE,160,0.0,0.0,72,0.00,,,0.00,Wunderground v.1.15,2013-08-19 10:41:00,
2013-08-19 05:44:00,72.8,63.6,29.87,SSE,160,0.0,0.0,73,0.00,,,0.00,Wunderground v.1.15,2013-08-19 10:44:00,
2013-08-19 05:46:00,72.7,63.5,29.87,SSE,160,0.0,0.0,73,0.00,,,0.00,Wunderground v.1.15,2013-08-19 10:46:00,
2013-08-19 05:47:00,72.7,63.5,29.87,SSE,160,0.0,0.0,73,0.00,,,0.00,Wunderground v.1.15,2013-08-19 10:47:00,
2013-08-19 05:50:00,72.7,63.5,29.87,SSE,160,0.0,0.0,73,0.00,,,0.00,Wunderground v.1.15,2013-08-19 10:50:00,
2013-08-19 05:51:00,72.7,63.5,29.87,SSE,160,0.0,0.0,73,0.00,,,0.00,Wunderground v.1.15,2013-08-19 10:51:00,
2013-08-19 05:52:00,72.7,63.5,29.87,SSE,160,0.0,0.0,73,0.00,,,0.00,Wunderground v.1.15,2013-08-19 10:52:00,
2013-08-19 05:53:00,72.7,63.5,29.87,SSE,160,0.0,0.0,73,0.00,,,0.00,Wunderground v.1.15,2013-08-19 10:53:00,
2013-08-19 05:54:00,72.5,63.4,29.87,SSE,160,0.0,0.0,73,0.00,,,0.00,Wunderground v.1.15,2013-08-19 10:54:00,
2013-08-19 05:57:00,72.5,63.4,29.87,SSE,160,0.0,0.0,73,0.00,,,0.00,Wunderground v.1.15,2013-08-19 10:57:00,
2013-08-19 05:59:00,72.5,63.4,29.87,SSE,160,0.0,0.0,73,0.00,,,0.00,Wunderground v.1.15,2013-08-19 10:59:00,
2013-08-19 06:01:00,72.5,63.4,29.87,SSE,160,0.0,0.0,73,0.00,,,0.00,Wunderground v.1.15,2013-08-19 11:01:00,
2013-08-19 06:02:00,72.5,63.4,29.88,SSE,160,0.0,0.0,73,0.00,,,0.00,Wunderground v.1.15,2013-08-19 11:02:00,
2013-08-19 06:03:00,72.3,63.2,29.88,SSE,160,0.0,0.0,73,0.00,,,0.00,Wunderground v.1.15,2013-08-19 11:03:00,
2013-08-19 06:04:00,72.3,63.2,29.88,SSE,160,0.0,0.0,73,0.00,,,0.00,Wunderground v.1.15,2013-08-19 11:04:00,
2013-08-19 06:05:00,72.3,63.2,29.88,SSE,160,0.0,0.0,73,0.00,,,0.00,Wunderground v.1.15,2013-08-19 11:05:00,
2013-08-19 06:07:00,72.3,63.5,29.88,SSE,160,0.0,0.0,74,0.00,,,0.00,Wunderground v.1.15,2013-08-19 11:07:00,
2013-08-19 06:08:00,72.3,63.5,29.88,SSE,160,0.0,0.0,74,0.00,,,0.00,Wunderground v.1.15,2013-08-19 11:08:00,
2013-08-19 06:10:00,72.1,63.4,29.88,SSE,160,0.0,0.0,74,0.00,,,0.00,Wunderground v.1.15,2013-08-19 11:10:00,
2013-08-19 06:11:00,72.1,63.4,29.88,SSE,160,0.0,0.0,74,0.00,,,0.00,Wunderground v.1.15,2013-08-19 11:11:00,
2013-08-19 06:12:00,72.1,63.4,29.88,SSE,160,0.0,0.0,74,0.00,,,0.00,Wunderground v.1.15,2013-08-19 11:12:00,
2013-08-19 06:17:00,72.1,63.4,29.88,SSE,160,0.0,0.0,74,0.00,,,0.00,Wunderground v.1.15,2013-08-19 11:17:00,
2013-08-19 06:18:00,72.1,63.4,29.88,SSE,160,0.0,0.0,74,0.00,,,0.00,Wunderground v.1.15,2013-08-19 11:18:00,
2013-08-19 06:19:00,72.1,63.4,29.88,SSE,160,0.0,0.0,74,0.00,,,0.00,Wunderground v.1.15,2013-08-19 11:19:00,
2013-08-19 06:20:00,72.1,63.4,29.88,SSE,160,0.0,0.0,74,0.00,,,0.00,Wunderground v.1.15,2013-08-19 11:20:00,
2013-08-19 06:23:00,72.1,63.4,29.88,SSE,160,0.0,0.0,74,0.00,,,0.00,Wunderground v.1.15,2013-08-19 11:23:00,
2013-08-19 06:24:00,72.1,63.4,29.88,SSE,160,0.0,0.0,74,0.00,,,0.00,Wunderground v.1.15,2013-08-19 11:24:00,
2013-08-19 06:26:00,72.1,63.4,29.88,SSE,160,0.0,0.0,74,0.00,,,0.00,Wunderground v.1.15,2013-08-19 11:26:00,
2013-08-19 06:28:00,72.1,63.4,29.88,SSE,160,0.0,0.0,74,0.00,,,0.00,Wunderground v.1.15,2013-08-19 11:28:00,
2013-08-19 06:33:00,72.0,63.3,29.89,SSE,160,0.0,0.0,74,0.00,,,0.00,Wunderground v.1.15,2013-08-19 11:33:00,
2013-08-19 06:34:00,72.0,63.3,29.89,SSE,160,0.0,0.0,74,0.00,,,0.00,Wunderground v.1.15,2013-08-19 11:34:00,
2013-08-19 06:38:00,72.0,63.3,29.89,SSE,160,0.0,0.0,74,0.00,,,0.00,Wunderground v.1.15,2013-08-19 11:38:00,
2013-08-19 06:39:00,72.0,63.3,29.89,SSE,160,0.0,0.0,74,0.00,,,0.00,Wunderground v.1.15,2013-08-19 11:39:00,
2013-08-19 06:41:00,72.0,63.3,29.89,SSE,160,0.0,0.0,74,0.00,,,0.00,Wunderground v.1.15,2013-08-19 11:41:00,
2013-08-19 06:43:00,72.0,63.3,29.89,SSE,160,0.0,0.0,74,0.00,,,0.00,Wunderground v.1.15,2013-08-19 11:43:00,
2013-08-19 06:45:00,72.0,63.3,29.89,SSE,160,0.0,0.0,74,0.00,,,0.00,Wunderground v.1.15,2013-08-19 11:45:00,
2013-08-19 06:46:00,72.0,63.3,29.89,SSE,160,0.0,0.0,74,0.00,,,0.00,Wunderground v.1.15,2013-08-19 11:46:00,
2013-08-19 06:47:00,72.0,63.3,29.89,SSE,160,0.0,0.0,74,0.00,,,0.00,Wunderground v.1.15,2013-08-19 11:47:00,
2013-08-19 06:51:00,72.0,63.6,29.89,SSE,160,0.0,0.0,75,0.00,,,0.00,Wunderground v.1.15,2013-08-19 11:51:00,
2013-08-19 06:52:00,72.0,63.6,29.89,SSE,160,0.0,0.0,75,0.00,,,0.00,Wunderground v.1.15,2013-08-19 11:52:00,
2013-08-19 06:54:00,71.8,63.4,29.89,SSE,160,0.0,0.0,75,0.00,,,0.00,Wunderground v.1.15,2013-08-19 11:54:00,
2013-08-19 06:55:00,71.8,63.4,29.89,SSE,160,0.0,0.0,75,0.00,,,0.00,Wunderground v.1.15,2013-08-19 11:55:00,
2013-08-19 06:59:00,71.8,63.4,29.89,SSE,160,0.0,0.0,75,0.00,,,0.00,Wunderground v.1.15,2013-08-19 11:59:00,
2013-08-19 07:01:00,71.8,63.4,29.89,SSE,160,0.0,0.0,75,0.00,,,0.00,Wunderground v.1.15,2013-08-19 12:01:00,
2013-08-19 07:02:00,71.8,63.4,29.89,SSE,160,0.0,0.0,75,0.00,,,0.00,Wunderground v.1.15,2013-08-19 12:02:00,
2013-08-19 07:04:00,71.8,63.1,29.89,SSE,160,0.0,0.0,74,0.00,,,0.00,Wunderground v.1.15,2013-08-19 12:04:00,
2013-08-19 07:06:00,72.0,63.3,29.89,SSE,160,0.0,0.0,74,0.00,,,0.00,Wunderground v.1.15,2013-08-19 12:06:00,
2013-08-19 07:07:00,72.0,63.3,29.89,SSE,160,0.0,0.0,74,0.00,,,0.00,Wunderground v.1.15,2013-08-19 12:07:00,
2013-08-19 07:08:00,72.0,63.3,29.89,SSE,160,0.0,0.0,74,0.00,,,0.00,Wunderground v.1.15,2013-08-19 12:08:00,
2013-08-19 07:11:00,72.0,63.3,29.89,SSE,160,0.0,0.0,74,0.00,,,0.00,Wunderground v.1.15,2013-08-19 12:11:00,
2013-08-19 07:13:00,72.0,63.3,29.89,SSE,160,0.0,0.0,74,0.00,,,0.00,Wunderground v.1.15,2013-08-19 12:13:00,
2013-08-19 07:17:00,72.0,63.3,29.90,SSE,160,0.0,0.0,74,0.00,,,0.00,Wunderground v.1.15,2013-08-19 12:17:00,
2013-08-19 07:18:00,72.0,63.3,29.90,SSE,160,0.0,0.0,74,0.00,,,0.00,Wunderground v.1.15,2013-08-19 12:18:00,
2013-08-19 07:21:00,72.0,63.3,29.90,SSE,160,0.0,0.0,74,0.00,,,0.00,Wunderground v.1.15,2013-08-19 12:21:00,
2013-08-19 07:23:00,72.0,63.3,29.90,SSE,160,0.0,0.0,74,0.00,,,0.00,Wunderground v.1.15,2013-08-19 12:23:00,
2013-08-19 07:24:00,72.0,63.3,29.90,SSE,160,0.0,0.0,74,0.00,,,0.00,Wunderground v.1.15,2013-08-19 12:24:00,
2013-08-19 07:26:00,72.0,63.3,29.90,SSE,160,0.0,0.0,74,0.00,,,0.00,Wunderground v.1.15,2013-08-19 12:26:00,
2013-08-19 07:27:00,72.0,63.3,29.90,SSE,160,0.0,0.0,74,0.00,,,0.00,Wunderground v.1.15,2013-08-19 12:27:00,
2013-08-19 07:28:00,72.0,63.3,29.90,SSE,160,0.0,0.0,74,0.00,,,0.00,Wunderground v.1.15,2013-08-19 12:28:00,
2013-08-19 07:31:00,72.0,63.3,29.90,SSE,160,0.0,0.0,74,0.00,,,0.00,Wunderground v.1.15,2013-08-19 12:31:00,
2013-08-19 07:33:00,72.0,63.3,29.90,SSE,160,0.0,0.0,74,0.00,,,0.00,Wunderground v.1.15,2013-08-19 12:33:00,
2013-08-19 07:35:00,72.1,63.4,29.90,SSE,160,0.0,0.0,74,0.00,,,0.00,Wunderground v.1.15,2013-08-19 12:35:00,
2013-08-19 07:38:00,72.1,63.4,29.90,SSE,160,0.0,0.0,74,0.00,,,0.00,Wunderground v.1.15,2013-08-19 12:38:00,
2013-08-19 07:39:00,72.1,63.4,29.90,SSE,160,0.0,0.0,74,0.00,,,0.00,Wunderground v.1.15,2013-08-19 12:39:00,
2013-08-19 07:42:00,72.3,63.5,29.90,SSE,160,0.0,0.0,74,0.00,,,0.00,Wunderground v.1.15,2013-08-19 12:42:00,
2013-08-19 07:43:00,72.5,63.7,29.90,SSE,160,0.0,0.0,74,0.00,,,0.00,Wunderground v.1.15,2013-08-19 12:43:00,
2013-08-19 07:44:00,72.5,63.7,29.90,SSE,160,0.0,0.0,74,0.00,,,0.00,Wunderground v.1.15,2013-08-19 12:44:00,
2013-08-19 07:48:00,72.8,64.0,29.90,SSE,160,0.0,0.0,74,0.00,,,0.00,Wunderground v.1.15,2013-08-19 12:48:00,
2013-08-19 07:49:00,72.8,63.6,29.90,SSE,160,0.0,0.0,73,0.00,,,0.00,Wunderground v.1.15,2013-08-19 12:49:00,
2013-08-19 07:51:00,73.0,63.8,29.90,SSE,160,0.0,0.0,73,0.00,,,0.00,Wunderground v.1.15,2013-08-19 12:51:00,
2013-08-19 07:53:00,73.2,64.0,29.90,SSE,160,0.0,0.0,73,0.00,,,0.00,Wunderground v.1.15,2013-08-19 12:53:00,
2013-08-19 07:54:00,73.3,64.1,29.90,SSE,160,0.0,0.0,73,0.00,,,0.00,Wunderground v.1.15,2013-08-19 12:54:00,
2013-08-19 07:55:00,73.3,64.1,29.90,SSE,160,0.0,0.0,73,0.00,,,0.00,Wunderground v.1.15,2013-08-19 12:55:00,
2013-08-19 07:56:00,73.5,64.3,29.90,SSE,160,0.0,0.0,73,0.00,,,0.00,Wunderground v.1.15,2013-08-19 12:56:00,
2013-08-19 07:59:00,73.9,64.7,29.90,SSE,160,0.0,0.0,73,0.00,,,0.00,Wunderground v.1.15,2013-08-19 12:59:00,
2013-08-19 08:01:00,74.0,64.8,29.90,SSE,160,0.0,0.0,73,0.00,,,0.00,Wunderground v.1.15,2013-08-19 13:01:00,
2013-08-19 08:02:00,74.2,64.6,29.90,SSE,160,0.0,0.0,72,0.00,,,0.00,Wunderground v.1.15,2013-08-19 13:02:00,
2013-08-19 08:03:00,74.4,64.8,29.90,SSE,160,0.0,0.0,72,0.00,,,0.00,Wunderground v.1.15,2013-08-19 13:03:00,
2013-08-19 08:05:00,74.7,64.7,29.90,SSE,160,0.0,0.0,71,0.00,,,0.00,Wunderground v.1.15,2013-08-19 13:05:00,
2013-08-19 08:06:00,74.7,64.7,29.90,SSE,160,0.0,0.0,71,0.00,,,0.00,Wunderground v.1.15,2013-08-19 13:06:00,
2013-08-19 08:08:00,74.9,64.0,29.90,SSE,160,0.0,0.0,69,0.00,,,0.00,Wunderground v.1.15,2013-08-19 13:08:00,
2013-08-19 08:11:00,75.3,64.4,29.90,SSE,160,0.0,0.0,69,0.00,,,0.00,Wunderground v.1.15,2013-08-19 13:11:00,
2013-08-19 08:12:00,75.3,64.4,29.90,SSE,160,0.0,0.0,69,0.00,,,0.00,Wunderground v.1.15,2013-08-19 13:12:00,
2013-08-19 08:13:00,75.4,64.5,29.90,SSE,160,0.0,0.0,69,0.00,,,0.00,Wunderground v.1.15,2013-08-19 13:13:00,
2013-08-19 08:14:00,75.6,64.7,29.90,SSE,160,0.0,0.0,69,0.00,,,0.00,Wunderground v.1.15,2013-08-19 13:14:00,
2013-08-19 08:16:00,75.8,64.5,29.90,SSE,160,0.0,0.0,68,0.00,,,0.00,Wunderground v.1.15,2013-08-19 13:16:00,
2013-08-19 08:17:00,76.0,64.7,29.91,SSE,160,0.0,0.0,68,0.00,,,0.00,Wunderground v.1.15,2013-08-19 13:17:00,
2013-08-19 08:18:00,76.0,64.2,29.91,SSE,160,0.0,0.0,67,0.00,,,0.00,Wunderground v.1.15,2013-08-19 13:18:00,
2013-08-19 08:21:00,76.3,64.1,29.91,SSE,160,0.0,0.0,66,0.00,,,0.00,Wunderground v.1.15,2013-08-19 13:21:00,
2013-08-19 08:22:00,76.5,64.3,29.91,SSE,160,0.0,0.0,66,0.00,,,0.00,Wunderground v.1.15,2013-08-19 13:22:00,
2013-08-19 08:23:00,76.5,64.3,29.91,SSE,160,0.0,0.0,66,0.00,,,0.00,Wunderground v.1.15,2013-08-19 13:23:00,
2013-08-19 08:26:00,76.8,64.6,29.91,SSE,160,0.0,0.0,66,0.00,,,0.00,Wunderground v.1.15,2013-08-19 13:26:00,
2013-08-19 08:27:00,77.0,64.8,29.91,SSE,160,0.0,0.0,66,0.00,,,0.00,Wunderground v.1.15,2013-08-19 13:27:00,
2013-08-19 08:30:00,77.2,64.5,29.91,SSE,160,0.0,0.0,65,0.00,,,0.00,Wunderground v.1.15,2013-08-19 13:30:00,
2013-08-19 08:31:00,77.4,64.7,29.91,SSE,160,0.0,0.0,65,0.00,,,0.00,Wunderground v.1.15,2013-08-19 13:31:00,
2013-08-19 08:32:00,77.4,64.7,29.92,SSE,160,0.0,0.0,65,0.00,,,0.00,Wunderground v.1.15,2013-08-19 13:32:00,
2013-08-19 08:34:00,77.4,64.3,29.92,SSE,160,0.0,2.0,64,0.00,,,0.00,Wunderground v.1.15,2013-08-19 13:34:00,
2013-08-19 08:37:00,77.6,64.5,29.92,SSE,160,0.0,2.0,64,0.00,,,0.00,Wunderground v.1.15,2013-08-19 13:37:00,
2013-08-19 08:39:00,77.7,64.5,29.92,SSE,160,0.0,2.0,64,0.00,,,0.00,Wunderground v.1.15,2013-08-19 13:39:00,
2013-08-19 08:40:00,77.9,64.3,29.92,SSE,160,0.0,2.0,63,0.00,,,0.00,Wunderground v.1.15,2013-08-19 13:40:00,
2013-08-19 08:41:00,77.9,64.3,29.92,SSE,160,0.0,0.0,63,0.00,,,0.00,Wunderground v.1.15,2013-08-19 13:41:00,
2013-08-19 08:42:00,77.9,64.3,29.92,SSE,160,0.0,0.0,63,0.00,,,0.00,Wunderground v.1.15,2013-08-19 13:42:00,
2013-08-19 08:44:00,78.1,64.0,29.92,SSE,160,0.0,0.0,62,0.00,,,0.00,Wunderground v.1.15,2013-08-19 13:44:00,
2013-08-19 08:47:00,78.3,64.2,29.92,SSE,160,0.0,0.0,62,0.00,,,0.00,Wunderground v.1.15,2013-08-19 13:47:00,
2013-08-19 08:48:00,78.5,64.4,29.92,SSE,160,0.0,0.0,62,0.00,,,0.00,Wunderground v.1.15,2013-08-19 13:48:00,
2013-08-19 08:49:00,78.5,63.9,29.92,SSE,160,0.0,0.0,61,0.00,,,0.00,Wunderground v.1.15,2013-08-19 13:49:00,
2013-08-19 08:51:00,78.6,64.0,29.92,SSE,160,0.0,0.0,61,0.00,,,0.00,Wunderground v.1.15,2013-08-19 13:51:00,
2013-08-19 08:54:00,78.8,64.2,29.92,SSE,160,0.0,0.0,61,0.00,,,0.00,Wunderground v.1.15,2013-08-19 13:54:00,
2013-08-19 08:56:00,79.0,63.9,29.92,SSE,160,0.0,0.0,60,0.00,,,0.00,Wunderground v.1.15,2013-08-19 13:56:00,
2013-08-19 09:02:00,79.6,64.5,29.92,SSE,160,0.0,0.0,60,0.00,,,0.00,Wunderground v.1.15,2013-08-19 14:02:00,
2013-08-19 09:03:00,79.6,64.5,29.92,SSE,160,0.0,0.0,60,0.00,,,0.00,Wunderground v.1.15,2013-08-19 14:03:00,
2013-08-19 09:06:00,79.9,64.3,29.92,SSE,160,0.0,0.0,59,0.00,,,0.00,Wunderground v.1.15,2013-08-19 14:06:00,
2013-08-19 09:07:00,79.9,64.3,29.92,SSE,160,0.0,0.0,59,0.00,,,0.00,Wunderground v.1.15,2013-08-19 14:07:00,
2013-08-19 09:09:00,80.1,64.0,29.92,SSE,160,0.0,1.0,58,0.00,,,0.00,Wunderground v.1.15,2013-08-19 14:09:00,
2013-08-19 09:12:00,79.9,63.8,29.92,SSE,160,0.0,2.0,58,0.00,,,0.00,Wunderground v.1.15,2013-08-19 14:12:00,
2013-08-19 09:15:00,79.9,63.8,29.92,SSE,160,1.0,2.0,58,0.00,,,0.00,Wunderground v.1.15,2013-08-19 14:15:00,
2013-08-19 09:16:00,79.9,64.3,29.92,SSE,160,1.0,2.0,59,0.00,,,0.00,Wunderground v.1.15,2013-08-19 14:16:00,
2013-08-19 09:18:00,79.9,64.3,29.93,SSE,160,1.0,2.0,59,0.00,,,0.00,Wunderground v.1.15,2013-08-19 14:18:00,
2013-08-19 09:19:00,80.1,64.5,29.93,SSE,160,1.0,2.0,59,0.00,,,0.00,Wunderground v.1.15,2013-08-19 14:19:00,
2013-08-19 09:21:00,80.3,64.7,29.93,SSE,160,1.0,1.0,59,0.00,,,0.00,Wunderground v.1.15,2013-08-19 14:21:00,
2013-08-19 09:23:00,80.3,63.7,29.93,ESE,117,1.0,2.0,57,0.00,,,0.00,Wunderground v.1.15,2013-08-19 14:23:00,
2013-08-19 09:25:00,80.3,63.2,29.93,ESE,117,1.0,3.0,56,0.00,,,0.00,Wunderground v.1.15,2013-08-19 14:25:00,
2013-08-19 09:27:00,80.1,64.0,29.93,ESE,117,1.0,3.0,58,0.00,,,0.00,Wunderground v.1.15,2013-08-19 14:27:00,
2013-08-19 09:28:00,80.1,64.0,29.93,SE,136,1.0,3.0,58,0.00,,,0.00,Wunderground v.1.15,2013-08-19 14:28:00,
2013-08-19 09:30:00,80.1,63.5,29.93,SE,136,2.0,3.0,57,0.00,,,0.00,Wunderground v.1.15,2013-08-19 14:30:00,
2013-08-19 09:31:00,80.1,63.5,29.93,SE,136,2.0,2.0,57,0.00,,,0.00,Wunderground v.1.15,2013-08-19 14:31:00,
2013-08-19 09:36:00,80.9,63.7,29.93,SE,136,1.0,5.0,56,0.00,,,0.00,Wunderground v.1.15,2013-08-19 14:36:00,
2013-08-19 09:37:00,80.9,64.2,29.93,SE,136,1.0,5.0,57,0.00,,,0.00,Wunderground v.1.15,2013-08-19 14:37:00,
2013-08-19 09:38:00,81.1,64.4,29.93,SE,136,1.0,5.0,57,0.00,,,0.00,Wunderground v.1.15,2013-08-19 14:38:00,
2013-08-19 09:40:00,81.4,64.2,29.93,SE,136,1.0,5.0,56,0.00,,,0.00,Wunderground v.1.15,2013-08-19 14:40:00,
2013-08-19 09:41:00,81.4,64.2,29.93,SE,136,1.0,1.0,56,0.00,,,0.00,Wunderground v.1.15,2013-08-19 14:41:00,
2013-08-19 09:42:00,81.6,63.9,29.93,SE,136,1.0,1.0,55,0.00,,,0.00,Wunderground v.1.15,2013-08-19 14:42:00,
2013-08-19 09:44:00,81.6,63.3,29.93,SE,136,1.0,1.0,54,0.00,,,0.00,Wunderground v.1.15,2013-08-19 14:44:00,
2013-08-19 09:46:00,81.8,63.0,29.93,SSE,158,1.0,2.0,53,0.00,,,0.00,Wunderground v.1.15,2013-08-19 14:46:00,
2013-08-19 09:47:00,81.8,63.0,29.93,South,181,1.0,4.0,53,0.00,,,0.00,Wunderground v.1.15,2013-08-19 14:47:00,
2013-08-19 09:49:00,81.8,63.0,29.93,SE,137,2.0,4.0,53,0.00,,,0.00,Wunderground v.1.15,2013-08-19 14:49:00,
2013-08-19 09:54:00,82.0,62.6,29.93,ESE,117,2.0,6.0,52,0.00,,,0.00,Wunderground v.1.15,2013-08-19 14:54:00,
2013-08-19 09:56:00,82.0,62.1,29.93,East,100,3.0,6.0,51,0.00,,,0.00,Wunderground v.1.15,2013-08-19 14:56:00,
2013-08-19 09:58:00,82.2,62.8,29.93,SE,128,3.0,6.0,52,0.00,,,0.00,Wunderground v.1.15,2013-08-19 14:58:00,
2013-08-19 10:01:00,82.4,62.5,29.93,South,179,3.0,3.0,51,0.00,,,0.00,Wunderground v.1.15,2013-08-19 15:01:00,
2013-08-19 10:02:00,82.4,62.5,29.94,South,179,3.0,3.0,51,0.00,,,0.00,Wunderground v.1.15,2013-08-19 15:02:00,
2013-08-19 10:03:00,82.4,63.0,29.94,South,174,3.0,3.0,52,0.00,,,0.00,Wunderground v.1.15,2013-08-19 15:03:00,
2013-08-19 10:06:00,83.0,63.6,29.94,ESE,112,2.0,3.0,52,0.00,,,0.00,Wunderground v.1.15,2013-08-19 15:06:00,
2013-08-19 10:08:00,83.0,63.0,29.94,SE,143,2.0,3.0,51,0.00,,,0.00,Wunderground v.1.15,2013-08-19 15:08:00,
2013-08-19 10:11:00,83.0,62.4,29.94,SE,143,2.0,2.0,50,0.00,,,0.00,Wunderground v.1.15,2013-08-19 15:11:00,
2013-08-19 10:12:00,83.0,63.0,29.94,SSE,168,2.0,3.0,51,0.00,,,0.00,Wunderground v.1.15,2013-08-19 15:12:00,
2013-08-19 10:13:00,83.0,63.0,29.94,South,179,2.0,3.0,51,0.00,,,0.00,Wunderground v.1.15,2013-08-19 15:13:00,
2013-08-19 10:14:00,83.0,63.0,29.94,SSE,165,2.0,3.0,51,0.00,,,0.00,Wunderground v.1.15,2013-08-19 15:14:00,
2013-08-19 10:16:00,83.2,63.2,29.94,East,100,3.0,5.0,51,0.00,,,0.00,Wunderground v.1.15,2013-08-19 15:16:00,
2013-08-19 10:18:00,83.4,63.4,29.94,SE,144,2.0,5.0,51,0.00,,,0.00,Wunderground v.1.15,2013-08-19 15:18:00,
2013-08-19 10:19:00,83.4,63.4,29.94,SE,145,2.0,5.0,51,0.00,,,0.00,Wunderground v.1.15,2013-08-19 15:19:00,
2013-08-19 10:20:00,83.6,63.0,29.94,SSE,150,2.0,3.0,50,0.00,,,0.00,Wunderground v.1.15,2013-08-19 15:20:00,
2013-08-19 10:22:00,83.6,63.0,29.94,SE,138,2.0,3.0,50,0.00,,,0.00,Wunderground v.1.15,2013-08-19 15:22:00,
2013-08-19 10:24:00,84.0,63.4,29.94,South,185,3.0,6.0,50,0.00,,,0.00,Wunderground v.1.15,2013-08-19 15:24:00,
2013-08-19 10:25:00,84.0,62.8,29.94,SSE,161,3.0,6.0,49,0.00,,,0.00,Wunderground v.1.15,2013-08-19 15:25:00,
2013-08-19 10:26:00,84.1,62.9,29.94,South,188,3.0,6.0,49,0.00,,,0.00,Wunderground v.1.15,2013-08-19 15:26:00,
2013-08-19 10:29:00,84.0,62.8,29.94,SE,127,3.0,6.0,49,0.00,,,0.00,Wunderground v.1.15,2013-08-19 15:29:00,
2013-08-19 10:31:00,83.8,62.6,29.94,SE,143,4.0,8.0,49,0.00,,,0.00,Wunderground v.1.15,2013-08-19 15:31:00,
2013-08-19 10:32:00,83.6,62.4,29.94,SSE,165,5.0,8.0,49,0.00,,,0.00,Wunderground v.1.15,2013-08-19 15:32:00,
2013-08-19 10:33:00,83.6,62.4,29.94,SE,124,5.0,8.0,49,0.00,,,0.00,Wunderground v.1.15,2013-08-19 15:33:00,
2013-08-19 10:37:00,83.6,62.4,29.94,SE,134,6.0,9.0,49,0.00,,,0.00,Wunderground v.1.15,2013-08-19 15:37:00,
2013-08-19 10:38:00,83.8,62.6,29.94,SE,128,6.0,9.0,49,0.00,,,0.00,Wunderground v.1.15,2013-08-19 15:38:00,
2013-08-19 10:39:00,83.8,62.0,29.94,ESE,114,7.0,9.0,48,0.00,,,0.00,Wunderground v.1.15,2013-08-19 15:39:00,
2013-08-19 10:44:00,83.8,62.6,29.94,SE,134,6.0,9.0,49,0.00,,,0.00,Wunderground v.1.15,2013-08-19 15:44:00,
2013-08-19 10:45:00,84.0,62.8,29.94,ESE,116,6.0,9.0,49,0.00,,,0.00,Wunderground v.1.15,2013-08-19 15:45:00,
2013-08-19 10:49:00,84.1,62.3,29.94,ESE,114,4.0,9.0,48,0.00,,,0.00,Wunderground v.1.15,2013-08-19 15:49:00,
2013-08-19 10:50:00,84.3,63.1,29.94,SE,130,4.0,9.0,49,0.00,,,0.00,Wunderground v.1.15,2013-08-19 15:50:00,
2013-08-19 10:51:00,84.3,63.1,29.94,ESE,119,4.0,4.0,49,0.00,,,0.00,Wunderground v.1.15,2013-08-19 15:51:00,
2013-08-19 10:53:00,84.3,62.5,29.94,ESE,120,4.0,6.0,48,0.00,,,0.00,Wunderground v.1.15,2013-08-19 15:53:00,
2013-08-19 10:56:00,84.5,62.7,29.94,SE,136,4.0,6.0,48,0.00,,,0.00,Wunderground v.1.15,2013-08-19 15:56:00,
2013-08-19 10:57:00,84.7,62.8,29.94,SSW,196,4.0,6.0,48,0.00,,,0.00,Wunderground v.1.15,2013-08-19 15:57:00,
2013-08-19 11:00:00,84.7,62.2,29.94,SE,127,5.0,5.0,47,0.00,,,0.00,Wunderground v.1.15,2013-08-19 16:00:00,
2013-08-19 11:01:00,84.7,62.2,29.94,SSE,162,5.0,5.0,47,0.00,,,0.00,Wunderground v.1.15,2013-08-19 16:01:00,
2013-08-19 11:02:00,84.7,62.8,29.94,SE,140,5.0,6.0,48,0.00,,,0.00,Wunderground v.1.15,2013-08-19 16:02:00,
2013-08-19 11:03:00,84.7,62.2,29.94,South,175,5.0,6.0,47,0.00,,,0.00,Wunderground v.1.15,2013-08-19 16:03:00,
2013-08-19 11:07:00,84.7,62.2,29.94,South,182,6.0,8.0,47,0.00,,,0.00,Wunderground v.1.15,2013-08-19 16:07:00,
2013-08-19 11:08:00,84.9,63.0,29.94,SE,134,6.0,8.0,48,0.00,,,0.00,Wunderground v.1.15,2013-08-19 16:08:00,
2013-08-19 11:09:00,84.9,62.4,29.94,SE,136,6.0,8.0,47,0.00,,,0.00,Wunderground v.1.15,2013-08-19 16:09:00,
2013-08-19 11:11:00,84.7,62.2,29.94,SE,145,6.0,6.0,47,0.00,,,0.00,Wunderground v.1.15,2013-08-19 16:11:00,
2013-08-19 11:15:00,84.7,62.8,29.94,SSE,168,6.0,6.0,48,0.00,,,0.00,Wunderground v.1.15,2013-08-19 16:15:00,
2013-08-19 11:16:00,84.7,62.2,29.94,SE,138,6.0,8.0,47,0.00,,,0.00,Wunderground v.1.15,2013-08-19 16:16:00,
2013-08-19 11:20:00,84.7,62.8,29.94,South,175,6.0,8.0,48,0.00,,,0.00,Wunderground v.1.15,2013-08-19 16:20:00,
2013-08-19 11:21:00,84.7,62.8,29.94,SSE,160,6.0,6.0,48,0.00,,,0.00,Wunderground v.1.15,2013-08-19 16:21:00,
2013-08-19 11:25:00,84.9,63.0,29.94,SSE,158,5.0,13.0,48,0.00,,,0.00,Wunderground v.1.15,2013-08-19 16:25:00,
2013-08-19 11:27:00,85.3,62.8,29.94,SE,127,6.0,13.0,47,0.00,,,0.00,Wunderground v.1.15,2013-08-19 16:27:00,
2013-08-19 11:28:00,85.5,62.4,29.94,South,179,6.0,13.0,46,0.00,,,0.00,Wunderground v.1.15,2013-08-19 16:28:00,
2013-08-19 11:29:00,85.7,63.1,29.94,East,93,5.0,13.0,47,0.00,,,0.00,Wunderground v.1.15,2013-08-19 16:29:00,
2013-08-19 11:34:00,86.1,62.9,29.94,South,182,5.0,5.0,46,0.00,,,0.00,Wunderground v.1.15,2013-08-19 16:34:00,
2013-08-19 11:35:00,86.1,62.3,29.94,SE,144,4.0,5.0,45,0.00,,,0.00,Wunderground v.1.15,2013-08-19 16:35:00,
2013-08-19 11:39:00,86.1,62.9,29.94,SSE,148,4.0,8.0,46,0.00,,,0.00,Wunderground v.1.15,2013-08-19 16:39:00,
2013-08-19 11:40:00,86.3,62.5,29.94,SSE,160,5.0,9.0,45,0.00,,,0.00,Wunderground v.1.15,2013-08-19 16:40:00,
2013-08-19 11:42:00,86.3,62.5,29.94,ESE,120,5.0,5.0,45,0.00,,,0.00,Wunderground v.1.15,2013-08-19 16:42:00,
2013-08-19 11:45:00,86.1,62.3,29.94,ESE,121,5.0,5.0,45,0.00,,,0.00,Wunderground v.1.15,2013-08-19 16:45:00,
2013-08-19 11:47:00,86.3,63.1,29.94,SE,134,4.0,5.0,46,0.00,,,0.00,Wunderground v.1.15,2013-08-19 16:47:00,
2013-08-19 11:49:00,86.7,62.2,29.94,SE,138,3.0,6.0,44,0.00,,,0.00,Wunderground v.1.15,2013-08-19 16:49:00,
2013-08-19 11:52:00,87.0,62.5,29.94,East,86,3.0,7.0,44,0.00,,,0.00,Wunderground v.1.15,2013-08-19 16:52:00,
2013-08-19 11:55:00,86.7,62.2,29.94,ESE,110,4.0,7.0,44,0.00,,,0.00,Wunderground v.1.15,2013-08-19 16:55:00,
2013-08-19 11:59:00,87.0,63.1,29.94,SE,136,6.0,10.0,45,0.00,,,0.00,Wunderground v.1.15,2013-08-19 16:59:00,
2013-08-19 12:01:00,86.7,62.2,29.93,SSE,150,6.0,6.0,44,0.00,,,0.00,Wunderground v.1.15,2013-08-19 17:01:00,
2013-08-19 12:04:00,87.0,63.1,29.93,ESE,110,5.0,8.0,45,0.00,,,0.00,Wunderground v.1.15,2013-08-19 17:04:00,
2013-08-19 12:05:00,87.2,62.6,29.93,ESE,106,5.0,8.0,44,0.00,,,0.00,Wunderground v.1.15,2013-08-19 17:05:00,
2013-08-19 12:11:00,87.2,62.0,29.93,ESE,102,5.0,6.0,43,0.00,,,0.00,Wunderground v.1.15,2013-08-19 17:11:00,
2013-08-19 12:13:00,87.4,62.2,29.93,SE,130,5.0,6.0,43,0.00,,,0.00,Wunderground v.1.15,2013-08-19 17:13:00,
2013-08-19 12:14:00,87.2,61.3,29.93,SE,140,5.0,7.0,42,0.00,,,0.00,Wunderground v.1.15,2013-08-19 17:14:00,
2013-08-19 12:15:00,87.2,62.0,29.93,SSE,147,6.0,10.0,43,0.00,,,0.00,Wunderground v.1.15,2013-08-19 17:15:00,
2013-08-19 12:18:00,86.7,62.2,29.93,South,171,5.0,10.0,44,0.00,,,0.00,Wunderground v.1.15,2013-08-19 17:18:00,
2013-08-19 12:20:00,87.0,61.8,29.93,ESE,121,5.0,10.0,43,0.00,,,0.00,Wunderground v.1.15,2013-08-19 17:20:00,
2013-08-19 12:21:00,87.0,61.8,29.93,SE,124,4.0,4.0,43,0.00,,,0.00,Wunderground v.1.15,2013-08-19 17:21:00,
2013-08-19 12:24:00,87.2,62.0,29.93,SSE,157,5.0,13.0,43,0.00,,,0.00,Wunderground v.1.15,2013-08-19 17:24:00,
2013-08-19 12:26:00,87.4,62.2,29.93,ESE,114,5.0,13.0,43,0.00,,,0.00,Wunderground v.1.15,2013-08-19 17:26:00,
2013-08-19 12:27:00,87.4,62.2,29.93,ESE,117,5.0,13.0,43,0.00,,,0.00,Wunderground v.1.15,2013-08-19 17:27:00,
2013-08-19 12:28:00,87.2,62.0,29.93,SE,126,5.0,13.0,43,0.00,,,0.00,Wunderground v.1.15,2013-08-19 17:28:00,
2013-08-19 12:30:00,87.2,61.3,29.93,ENE,66,5.0,13.0,42,0.00,,,0.00,Wunderground v.1.15,2013-08-19 17:30:00,
2013-08-19 12:32:00,87.4,60.8,29.92,East,79,5.0,5.0,41,0.00,,,0.00,Wunderground v.1.15,2013-08-19 17:32:00,
2013-08-19 12:34:00,87.4,62.2,29.92,SE,133,5.0,6.0,43,0.00,,,0.00,Wunderground v.1.15,2013-08-19 17:34:00,
2013-08-19 12:36:00,87.4,62.2,29.92,SSE,150,4.0,6.0,43,0.00,,,0.00,Wunderground v.1.15,2013-08-19 17:36:00,
2013-08-19 12:37:00,87.2,62.0,29.92,SE,133,4.0,6.0,43,0.00,,,0.00,Wunderground v.1.15,2013-08-19 17:37:00,
2013-08-19 12:38:00,87.4,62.2,29.92,East,80,3.0,6.0,43,0.00,,,0.00,Wunderground v.1.15,2013-08-19 17:38:00,
2013-08-19 12:40:00,87.4,61.5,29.92,ENE,78,4.0,6.0,42,0.00,,,0.00,Wunderground v.1.15,2013-08-19 17:40:00,
2013-08-19 12:42:00,87.2,61.3,29.92,ESE,102,4.0,6.0,42,0.00,,,0.00,Wunderground v.1.15,2013-08-19 17:42:00,
2013-08-19 12:45:00,87.4,60.8,29.92,SE,127,4.0,9.0,41,0.00,,,0.00,Wunderground v.1.15,2013-08-19 17:45:00,
2013-08-19 12:47:00,87.4,60.8,29.92,SE,141,4.0,9.0,41,0.00,,,0.00,Wunderground v.1.15,2013-08-19 17:47:00,
2013-08-19 12:48:00,87.6,60.3,29.92,SE,141,4.0,9.0,40,0.00,,,0.00,Wunderground v.1.15,2013-08-19 17:48:00,
2013-08-19 12:50:00,87.6,61.0,29.92,SE,141,4.0,7.0,41,0.00,,,0.00,Wunderground v.1.15,2013-08-19 17:50:00,
2013-08-19 12:52:00,87.6,61.0,29.92,ESE,102,4.0,7.0,41,0.00,,,0.00,Wunderground v.1.15,2013-08-19 17:52:00,
2013-08-19 12:55:00,87.6,61.0,29.92,ESE,102,4.0,7.0,41,0.00,,,0.00,Wunderground v.1.15,2013-08-19 17:55:00,
2013-08-19 12:56:00,87.6,61.0,29.92,ESE,123,3.0,7.0,41,0.00,,,0.00,Wunderground v.1.15,2013-08-19 17:56:00,
2013-08-19 13:00:00,88.0,62.0,29.92,SSE,148,3.0,4.0,42,0.00,,,0.00,Wunderground v.1.15,2013-08-19 18:00:00,
2013-08-19 13:01:00,88.2,62.2,29.92,SE,138,2.0,4.0,42,0.00,,,0.00,Wunderground v.1.15,2013-08-19 18:01:00,
2013-08-19 13:02:00,88.4,61.7,29.92,SSW,195,3.0,7.0,41,0.00,,,0.00,Wunderground v.1.15,2013-08-19 18:02:00,
2013-08-19 13:05:00,88.6,61.2,29.92,SE,131,4.0,9.0,40,0.00,,,0.00,Wunderground v.1.15,2013-08-19 18:05:00,
2013-08-19 13:07:00,88.4,61.0,29.92,SE,130,4.0,9.0,40,0.00,,,0.00,Wunderground v.1.15,2013-08-19 18:07:00,
2013-08-19 13:08:00,88.2,60.8,29.92,ESE,121,4.0,9.0,40,0.00,,,0.00,Wunderground v.1.15,2013-08-19 18:08:00,
2013-08-19 13:10:00,88.0,61.3,29.92,ESE,121,4.0,4.0,41,0.00,,,0.00,Wunderground v.1.15,2013-08-19 18:10:00,
2013-08-19 13:13:00,87.8,61.2,29.92,ESE,110,4.0,11.0,41,0.00,,,0.00,Wunderground v.1.15,2013-08-19 18:13:00,
2013-08-19 13:14:00,87.6,61.0,29.92,ESE,106,4.0,11.0,41,0.00,,,0.00,Wunderground v.1.15,2013-08-19 18:14:00,
2013-08-19 13:15:00,87.4,61.5,29.92,SW,219,4.0,11.0,42,0.00,,,0.00,Wunderground v.1.15,2013-08-19 18:15:00,
2013-08-19 13:16:00,87.6,61.7,29.92,South,174,4.0,11.0,42,0.00,,,0.00,Wunderground v.1.15,2013-08-19 18:16:00,
2013-08-19 13:17:00,87.6,61.0,29.91,SSE,154,5.0,11.0,41,0.00,,,0.00,Wunderground v.1.15,2013-08-19 18:17:00,
2013-08-19 13:20:00,87.8,61.2,29.91,East,90,6.0,10.0,41,0.00,,,0.00,Wunderground v.1.15,2013-08-19 18:20:00,
2013-08-19 13:21:00,88.0,61.3,29.91,SE,143,6.0,10.0,41,0.00,,,0.00,Wunderground v.1.15,2013-08-19 18:21:00,
2013-08-19 13:25:00,88.4,60.3,29.91,SSE,167,6.0,11.0,39,0.00,,,0.00,Wunderground v.1.15,2013-08-19 18:25:00,
2013-08-19 13:26:00,88.6,59.7,29.91,ESE,120,6.0,11.0,38,0.00,,,0.00,Wunderground v.1.15,2013-08-19 18:26:00,
2013-08-19 13:28:00,88.8,59.9,29.91,SSE,147,6.0,11.0,38,0.00,,,0.00,Wunderground v.1.15,2013-08-19 18:28:00,
2013-08-19 13:31:00,88.8,60.7,29.91,SE,128,6.0,7.0,39,0.00,,,0.00,Wunderground v.1.15,2013-08-19 18:31:00,
2013-08-19 13:33:00,89.0,60.1,29.91,SE,134,5.0,7.0,38,0.00,,,0.00,Wunderground v.1.15,2013-08-19 18:33:00,
2013-08-19 13:34:00,89.0,60.1,29.91,SE,134,5.0,7.0,38,0.00,,,0.00,Wunderground v.1.15,2013-08-19 18:34:00,
2013-08-19 13:36:00,89.3,60.4,29.91,NW,305,5.0,7.0,38,0.00,,,0.00,Wunderground v.1.15,2013-08-19 18:36:00,
2013-08-19 13:38:00,89.3,60.4,29.91,South,179,4.0,7.0,38,0.00,,,0.00,Wunderground v.1.15,2013-08-19 18:38:00,
2013-08-19 13:40:00,89.3,60.4,29.91,South,185,4.0,7.0,38,0.00,,,0.00,Wunderground v.1.15,2013-08-19 18:40:00,
2013-08-19 13:42:00,89.5,60.5,29.91,SSW,193,2.0,4.0,38,0.00,,,0.00,Wunderground v.1.15,2013-08-19 18:42:00,
2013-08-19 13:44:00,89.5,60.5,29.91,SW,220,2.0,8.0,38,0.00,,,0.00,Wunderground v.1.15,2013-08-19 18:44:00,
2013-08-19 13:46:00,89.5,61.3,29.90,SE,126,3.0,8.0,39,0.00,,,0.00,Wunderground v.1.15,2013-08-19 18:46:00,
2013-08-19 13:47:00,89.5,61.3,29.90,SE,131,3.0,8.0,39,0.00,,,0.00,Wunderground v.1.15,2013-08-19 18:47:00,
2013-08-19 13:48:00,89.3,61.1,29.90,SE,134,3.0,8.0,39,0.00,,,0.00,Wunderground v.1.15,2013-08-19 18:48:00,
2013-08-19 13:50:00,89.3,61.8,29.90,SSE,165,3.0,8.0,40,0.00,,,0.00,Wunderground v.1.15,2013-08-19 18:50:00,
2013-08-19 13:55:00,88.8,60.7,29.90,SSW,202,5.0,7.0,39,0.00,,,0.00,Wunderground v.1.15,2013-08-19 18:55:00,
2013-08-19 13:56:00,89.0,60.8,29.90,SSE,165,5.0,7.0,39,0.00,,,0.00,Wunderground v.1.15,2013-08-19 18:56:00,
2013-08-19 13:57:00,89.0,60.8,29.90,SSW,199,5.0,7.0,39,0.00,,,0.00,Wunderground v.1.15,2013-08-19 18:57:00,
2013-08-19 13:58:00,89.0,60.8,29.90,SE,137,5.0,7.0,39,0.00,,,0.00,Wunderground v.1.15,2013-08-19 18:58:00,
2013-08-19 14:01:00,89.0,60.1,29.90,South,178,5.0,5.0,38,0.00,,,0.00,Wunderground v.1.15,2013-08-19 19:01:00,
2013-08-19 14:02:00,89.0,60.1,29.89,SSE,151,4.0,6.0,38,0.00,,,0.00,Wunderground v.1.15,2013-08-19 19:02:00,
2013-08-19 14:03:00,88.8,59.9,29.89,SE,140,5.0,9.0,38,0.00,,,0.00,Wunderground v.1.15,2013-08-19 19:03:00,
2013-08-19 14:06:00,88.8,60.7,29.89,ESE,110,5.0,9.0,39,0.00,,,0.00,Wunderground v.1.15,2013-08-19 19:06:00,
2013-08-19 14:08:00,89.0,60.1,29.89,ESE,119,4.0,9.0,38,0.00,,,0.00,Wunderground v.1.15,2013-08-19 19:08:00,
2013-08-19 14:10:00,89.0,60.8,29.89,ESE,107,4.0,8.0,39,0.00,,,0.00,Wunderground v.1.15,2013-08-19 19:10:00,
2013-08-19 14:12:00,88.8,60.7,29.89,NE,35,4.0,8.0,39,0.00,,,0.00,Wunderground v.1.15,2013-08-19 19:12:00,
2013-08-19 14:15:00,88.6,59.7,29.89,NE,41,4.0,8.0,38,0.00,,,0.00,Wunderground v.1.15,2013-08-19 19:15:00,
2013-08-19 14:16:00,88.6,60.5,29.89,ESE,106,3.0,8.0,39,0.00,,,0.00,Wunderground v.1.15,2013-08-19 19:16:00,
2013-08-19 14:21:00,88.6,59.7,29.89,ESE,109,3.0,3.0,38,0.00,,,0.00,Wunderground v.1.15,2013-08-19 19:21:00,
2013-08-19 14:22:00,88.6,60.5,29.89,ESE,109,2.0,3.0,39,0.00,,,0.00,Wunderground v.1.15,2013-08-19 19:22:00,
2013-08-19 14:23:00,88.8,59.9,29.89,ESE,109,2.0,3.0,38,0.00,,,0.00,Wunderground v.1.15,2013-08-19 19:23:00,
2013-08-19 14:27:00,89.3,60.4,29.89,ESE,107,1.0,3.0,38,0.00,,,0.00,Wunderground v.1.15,2013-08-19 19:27:00,
2013-08-19 14:28:00,89.3,60.4,29.89,ESE,109,1.0,3.0,38,0.00,,,0.00,Wunderground v.1.15,2013-08-19 19:28:00,
2013-08-19 14:30:00,89.0,60.1,29.89,East,100,1.0,2.0,38,0.00,,,0.00,Wunderground v.1.15,2013-08-19 19:30:00,
2013-08-19 14:32:00,89.0,60.1,29.89,East,99,2.0,5.0,38,0.00,,,0.00,Wunderground v.1.15,2013-08-19 19:32:00,
2013-08-19 14:33:00,89.3,61.1,29.89,NE,55,2.0,5.0,39,0.00,,,0.00,Wunderground v.1.15,2013-08-19 19:33:00,
2013-08-19 14:35:00,89.5,60.5,29.89,NE,44,2.0,5.0,38,0.00,,,0.00,Wunderground v.1.15,2013-08-19 19:35:00,
2013-08-19 14:37:00,89.7,60.7,29.89,SSE,157,2.0,8.0,38,0.00,,,0.00,Wunderground v.1.15,2013-08-19 19:37:00,
2013-08-19 14:40:00,89.7,60.7,29.89,SSE,158,3.0,8.0,38,0.00,,,0.00,Wunderground v.1.15,2013-08-19 19:40:00,
2013-08-19 14:41:00,89.7,60.0,29.89,SSE,148,3.0,4.0,37,0.00,,,0.00,Wunderground v.1.15,2013-08-19 19:41:00,
2013-08-19 14:44:00,89.7,60.7,29.89,South,172,4.0,6.0,38,0.00,,,0.00,Wunderground v.1.15,2013-08-19 19:44:00,
2013-08-19 14:46:00,89.9,60.1,29.89,SE,136,4.0,7.0,37,0.00,,,0.00,Wunderground v.1.15,2013-08-19 19:46:00,
2013-08-19 14:47:00,89.7,60.0,29.88,SE,138,4.0,7.0,37,0.00,,,0.00,Wunderground v.1.15,2013-08-19 19:47:00,
2013-08-19 14:50:00,89.9,60.9,29.88,SE,144,4.0,7.0,38,0.00,,,0.00,Wunderground v.1.15,2013-08-19 19:50:00,
2013-08-19 14:51:00,89.9,60.1,29.88,South,175,4.0,5.0,37,0.00,,,0.00,Wunderground v.1.15,2013-08-19 19:51:00,
2013-08-19 14:52:00,90.1,60.3,29.88,SE,136,4.0,5.0,37,0.00,,,0.00,Wunderground v.1.15,2013-08-19 19:52:00,
2013-08-19 14:53:00,90.1,60.3,29.88,SSE,161,4.0,5.0,37,0.00,,,0.00,Wunderground v.1.15,2013-08-19 19:53:00,
2013-08-19 14:56:00,90.5,59.9,29.88,SW,217,4.0,5.0,36,0.00,,,0.00,Wunderground v.1.15,2013-08-19 19:56:00,
2013-08-19 14:58:00,90.7,60.1,29.88,SE,131,3.0,5.0,36,0.00,,,0.00,Wunderground v.1.15,2013-08-19 19:58:00,
2013-08-19 15:00:00,90.7,59.3,29.88,SSE,150,3.0,5.0,35,0.00,,,0.00,Wunderground v.1.15,2013-08-19 20:00:00,
2013-08-19 15:01:00,90.5,59.1,29.88,SE,126,3.0,10.0,35,0.00,,,0.00,Wunderground v.1.15,2013-08-19 20:01:00,
2013-08-19 15:02:00,90.3,58.9,29.87,SE,126,4.0,10.0,35,0.00,,,0.00,Wunderground v.1.15,2013-08-19 20:02:00,
2013-08-19 15:03:00,90.1,58.8,29.87,SE,126,3.0,10.0,35,0.00,,,0.00,Wunderground v.1.15,2013-08-19 20:03:00,
2013-08-19 15:04:00,90.1,59.5,29.87,SE,127,3.0,10.0,36,0.00,,,0.00,Wunderground v.1.15,2013-08-19 20:04:00,
2013-08-19 15:05:00,90.1,59.5,29.87,SE,127,3.0,10.0,36,0.00,,,0.00,Wunderground v.1.15,2013-08-19 20:05:00,
2013-08-19 15:08:00,89.9,59.4,29.87,SE,131,3.0,10.0,36,0.00,,,0.00,Wunderground v.1.15,2013-08-19 20:08:00,
2013-08-19 15:10:00,89.9,60.1,29.87,ESE,112,3.0,7.0,37,0.00,,,0.00,Wunderground v.1.15,2013-08-19 20:10:00,
2013-08-19 15:12:00,89.7,60.0,29.87,East,93,3.0,7.0,37,0.00,,,0.00,Wunderground v.1.15,2013-08-19 20:12:00,
2013-08-19 15:13:00,89.7,60.0,29.87,East,89,3.0,7.0,37,0.00,,,0.00,Wunderground v.1.15,2013-08-19 20:13:00,
2013-08-19 15:14:00,89.5,60.5,29.87,East,92,4.0,7.0,38,0.00,,,0.00,Wunderground v.1.15,2013-08-19 20:14:00,
2013-08-19 15:18:00,89.3,59.6,29.87,ESE,103,5.0,9.0,37,0.00,,,0.00,Wunderground v.1.15,2013-08-19 20:18:00,
2013-08-19 15:20:00,89.3,60.4,29.87,ESE,103,4.0,9.0,38,0.00,,,0.00,Wunderground v.1.15,2013-08-19 20:20:00,
2013-08-19 15:22:00,89.5,60.5,29.87,ESE,123,4.0,4.0,38,0.00,,,0.00,Wunderground v.1.15,2013-08-19 20:22:00,
2013-08-19 15:24:00,89.5,59.8,29.87,SE,124,3.0,4.0,37,0.00,,,0.00,Wunderground v.1.15,2013-08-19 20:24:00,
2013-08-19 15:25:00,89.5,60.5,29.87,SE,124,3.0,4.0,38,0.00,,,0.00,Wunderground v.1.15,2013-08-19 20:25:00,
2013-08-19 15:28:00,89.9,60.1,29.87,SE,124,1.0,4.0,37,0.00,,,0.00,Wunderground v.1.15,2013-08-19 20:28:00,
2013-08-19 15:30:00,90.1,59.5,29.87,SE,145,1.0,4.0,36,0.00,,,0.00,Wunderground v.1.15,2013-08-19 20:30:00,
2013-08-19 15:33:00,91.0,60.3,29.86,SE,130,1.0,7.0,36,0.00,,,0.00,Wunderground v.1.15,2013-08-19 20:33:00,
2013-08-19 15:34:00,91.2,60.5,29.86,SSW,212,1.0,7.0,36,0.00,,,0.00,Wunderground v.1.15,2013-08-19 20:34:00,
2013-08-19 15:35:00,91.4,59.9,29.86,SW,219,2.0,7.0,35,0.00,,,0.00,Wunderground v.1.15,2013-08-19 20:35:00,
2013-08-19 15:37:00,91.4,59.9,29.86,SE,133,2.0,9.0,35,0.00,,,0.00,Wunderground v.1.15,2013-08-19 20:37:00,
2013-08-19 15:38:00,91.4,59.9,29.86,SE,143,3.0,10.0,35,0.00,,,0.00,Wunderground v.1.15,2013-08-19 20:38:00,
2013-08-19 15:41:00,91.0,60.3,29.86,SSE,157,5.0,7.0,36,0.00,,,0.00,Wunderground v.1.15,2013-08-19 20:41:00,
2013-08-19 15:42:00,90.5,59.9,29.86,ESE,123,5.0,7.0,36,0.00,,,0.00,Wunderground v.1.15,2013-08-19 20:42:00,
2013-08-19 15:46:00,90.3,60.5,29.86,ESE,110,6.0,8.0,37,0.00,,,0.00,Wunderground v.1.15,2013-08-19 20:46:00,
2013-08-19 15:48:00,90.1,60.3,29.86,ESE,106,6.0,8.0,37,0.00,,,0.00,Wunderground v.1.15,2013-08-19 20:48:00,
2013-08-19 15:50:00,90.1,60.3,29.86,ESE,104,5.0,5.0,37,0.00,,,0.00,Wunderground v.1.15,2013-08-19 20:50:00,
2013-08-19 15:51:00,90.1,60.3,29.86,East,100,4.0,5.0,37,0.00,,,0.00,Wunderground v.1.15,2013-08-19 20:51:00,
2013-08-19 15:52:00,90.1,60.3,29.86,East,100,3.0,5.0,37,0.00,,,0.00,Wunderground v.1.15,2013-08-19 20:52:00,
2013-08-19 15:56:00,90.3,60.5,29.86,East,96,1.0,5.0,37,0.00,,,0.00,Wunderground v.1.15,2013-08-19 20:56:00,
2013-08-19 15:58:00,90.3,59.7,29.86,ENE,73,1.0,7.0,36,0.00,,,0.00,Wunderground v.1.15,2013-08-19 20:58:00,
2013-08-19 16:00:00,90.5,59.9,29.86,NNE,30,1.0,2.0,36,0.00,,,0.00,Wunderground v.1.15,2013-08-19 21:00:00,
2013-08-19 16:02:00,90.3,59.7,29.85,East,83,2.0,7.0,36,0.00,,,0.00,Wunderground v.1.15,2013-08-19 21:02:00,
2013-08-19 16:03:00,90.3,59.7,29.85,East,85,2.0,7.0,36,0.00,,,0.00,Wunderground v.1.15,2013-08-19 21:03:00,
2013-08-19 16:05:00,90.1,58.8,29.85,East,85,3.0,7.0,35,0.00,,,0.00,Wunderground v.1.15,2013-08-19 21:05:00,
2013-08-19 16:06:00,90.1,59.5,29.85,East,85,3.0,7.0,36,0.00,,,0.00,Wunderground v.1.15,2013-08-19 21:06:00,
2013-08-19 16:10:00,90.5,59.1,29.85,East,85,2.0,2.0,35,0.00,,,0.00,Wunderground v.1.15,2013-08-19 21:10:00,
2013-08-19 16:11:00,90.5,59.1,29.85,East,85,2.0,2.0,35,0.00,,,0.00,Wunderground v.1.15,2013-08-19 21:11:00,
2013-08-19 16:12:00,90.5,59.1,29.85,East,85,1.0,2.0,35,0.00,,,0.00,Wunderground v.1.15,2013-08-19 21:12:00,
2013-08-19 16:13:00,90.5,59.1,29.85,East,85,1.0,2.0,35,0.00,,,0.00,Wunderground v.1.15,2013-08-19 21:13:00,
2013-08-19 16:15:00,90.5,59.9,29.85,ESE,109,1.0,2.0,36,0.00,,,0.00,Wunderground v.1.15,2013-08-19 21:15:00,
2013-08-19 16:16:00,90.5,59.1,29.85,ESE,109,1.0,2.0,35,0.00,,,0.00,Wunderground v.1.15,2013-08-19 21:16:00,
2013-08-19 16:20:00,90.5,59.1,29.84,ESE,109,1.0,1.0,35,0.00,,,0.00,Wunderground v.1.15,2013-08-19 21:20:00,
2013-08-19 16:21:00,90.5,59.9,29.84,ESE,109,1.0,1.0,36,0.00,,,0.00,Wunderground v.1.15,2013-08-19 21:21:00,
2013-08-19 16:23:00,90.5,59.9,29.84,ESE,106,1.0,3.0,36,0.00,,,0.00,Wunderground v.1.15,2013-08-19 21:23:00,
2013-08-19 16:25:00,90.5,59.9,29.84,ESE,103,2.0,3.0,36,0.00,,,0.00,Wunderground v.1.15,2013-08-19 21:25:00,
2013-08-19 16:26:00,90.5,59.9,29.84,ESE,119,2.0,3.0,36,0.00,,,0.00,Wunderground v.1.15,2013-08-19 21:26:00,
2013-08-19 16:28:00,90.3,59.7,29.84,ESE,104,3.0,7.0,36,0.00,,,0.00,Wunderground v.1.15,2013-08-19 21:28:00,
2013-08-19 16:32:00,90.1,59.5,29.84,ESE,123,5.0,10.0,36,0.00,,,0.00,Wunderground v.1.15,2013-08-19 21:32:00,
2013-08-19 16:33:00,90.3,59.7,29.84,ESE,123,5.0,10.0,36,0.00,,,0.00,Wunderground v.1.15,2013-08-19 21:33:00,
2013-08-19 16:34:00,90.3,59.7,29.84,ESE,114,5.0,10.0,36,0.00,,,0.00,Wunderground v.1.15,2013-08-19 21:34:00,
2013-08-19 16:37:00,90.5,59.9,29.84,ESE,116,5.0,10.0,36,0.00,,,0.00,Wunderground v.1.15,2013-08-19 21:37:00,
2013-08-19 16:38:00,90.5,59.9,29.84,ESE,116,5.0,10.0,36,0.00,,,0.00,Wunderground v.1.15,2013-08-19 21:38:00,
2013-08-19 16:39:00,90.5,59.9,29.84,ESE,104,4.0,6.0,36,0.00,,,0.00,Wunderground v.1.15,2013-08-19 21:39:00,
2013-08-19 16:43:00,91.0,59.5,29.84,ESE,117,4.0,11.0,35,0.00,,,0.00,Wunderground v.1.15,2013-08-19 21:43:00,
2013-08-19 16:45:00,91.2,59.7,29.84,ESE,106,5.0,11.0,35,0.00,,,0.00,Wunderground v.1.15,2013-08-19 21:45:00,
2013-08-19 16:48:00,91.0,59.5,29.83,ESE,112,5.0,11.0,35,0.00,,,0.00,Wunderground v.1.15,2013-08-19 21:48:00,
2013-08-19 16:50:00,90.7,59.3,29.83,ESE,113,5.0,5.0,35,0.00,,,0.00,Wunderground v.1.15,2013-08-19 21:50:00,
2013-08-19 16:52:00,91.0,59.5,29.83,ESE,113,4.0,5.0,35,0.00,,,0.00,Wunderground v.1.15,2013-08-19 21:52:00,
2013-08-19 16:55:00,91.2,59.7,29.83,ESE,112,3.0,6.0,35,0.00,,,0.00,Wunderground v.1.15,2013-08-19 21:55:00,
2013-08-19 16:56:00,91.2,58.9,29.83,NE,37,3.0,6.0,34,0.00,,,0.00,Wunderground v.1.15,2013-08-19 21:56:00,
2013-08-19 16:58:00,91.2,58.9,29.83,NE,45,3.0,6.0,34,0.00,,,0.00,Wunderground v.1.15,2013-08-19 21:58:00,
2013-08-19 17:00:00,91.2,59.7,29.83,ESE,114,3.0,5.0,35,0.00,,,0.00,Wunderground v.1.15,2013-08-19 22:00:00,
2013-08-19 17:01:00,91.2,59.7,29.83,ESE,114,3.0,9.0,35,0.00,,,0.00,Wunderground v.1.15,2013-08-19 22:01:00,
2013-08-19 17:04:00,91.0,59.5,29.83,ESE,117,4.0,9.0,35,0.00,,,0.00,Wunderground v.1.15,2013-08-19 22:04:00,
2013-08-19 17:06:00,91.2,59.7,29.83,NNE,27,4.0,9.0,35,0.00,,,0.00,Wunderground v.1.15,2013-08-19 22:06:00,
2013-08-19 17:07:00,91.2,58.9,29.83,North,0,4.0,9.0,34,0.00,,,0.00,Wunderground v.1.15,2013-08-19 22:07:00,
2013-08-19 17:09:00,91.4,59.1,29.83,NE,42,4.0,4.0,34,0.00,,,0.00,Wunderground v.1.15,2013-08-19 22:09:00,
2013-08-19 17:10:00,91.4,59.1,29.83,NE,47,4.0,4.0,34,0.00,,,0.00,Wunderground v.1.15,2013-08-19 22:10:00,
2013-08-19 17:12:00,91.4,59.1,29.83,ENE,59,3.0,4.0,34,0.00,,,0.00,Wunderground v.1.15,2013-08-19 22:12:00,
2013-08-19 17:15:00,91.6,59.3,29.83,East,99,3.0,4.0,34,0.00,,,0.00,Wunderground v.1.15,2013-08-19 22:15:00,
2013-08-19 17:17:00,91.8,59.4,29.82,ENE,61,2.0,4.0,34,0.00,,,0.00,Wunderground v.1.15,2013-08-19 22:17:00,
2013-08-19 17:20:00,92.3,59.9,29.82,SSE,151,1.0,7.0,34,0.00,,,0.00,Wunderground v.1.15,2013-08-19 22:20:00,
2013-08-19 17:21:00,92.3,59.0,29.82,SSE,150,1.0,7.0,33,0.00,,,0.00,Wunderground v.1.15,2013-08-19 22:21:00,
2013-08-19 17:23:00,92.3,59.0,29.82,SE,131,2.0,7.0,33,0.00,,,0.00,Wunderground v.1.15,2013-08-19 22:23:00,
2013-08-19 17:26:00,92.1,58.9,29.82,ENE,69,3.0,7.0,33,0.00,,,0.00,Wunderground v.1.15,2013-08-19 22:26:00,
2013-08-19 17:28:00,92.1,59.7,29.82,ENE,75,4.0,9.0,34,0.00,,,0.00,Wunderground v.1.15,2013-08-19 22:28:00,
2013-08-19 17:31:00,91.6,58.4,29.82,East,96,4.0,5.0,33,0.00,,,0.00,Wunderground v.1.15,2013-08-19 22:31:00,
2013-08-19 17:33:00,91.6,59.3,29.82,ESE,113,4.0,5.0,34,0.00,,,0.00,Wunderground v.1.15,2013-08-19 22:33:00,
2013-08-19 17:35:00,91.6,59.3,29.82,ESE,102,3.0,5.0,34,0.00,,,0.00,Wunderground v.1.15,2013-08-19 22:35:00,
2013-08-19 17:36:00,91.6,58.4,29.82,ESE,102,2.0,5.0,33,0.00,,,0.00,Wunderground v.1.15,2013-08-19 22:36:00,
2013-08-19 17:37:00,91.8,58.6,29.82,ESE,102,2.0,5.0,33,0.00,,,0.00,Wunderground v.1.15,2013-08-19 22:37:00,
2013-08-19 17:40:00,91.8,58.6,29.82,ESE,116,1.0,2.0,33,0.00,,,0.00,Wunderground v.1.15,2013-08-19 22:40:00,
2013-08-19 17:41:00,91.8,58.6,29.82,ESE,116,1.0,2.0,33,0.00,,,0.00,Wunderground v.1.15,2013-08-19 22:41:00,
2013-08-19 17:44:00,91.6,59.3,29.82,ESE,109,2.0,12.0,34,0.00,,,0.00,Wunderground v.1.15,2013-08-19 22:44:00,
2013-08-19 17:45:00,91.6,59.3,29.82,ESE,110,2.0,12.0,34,0.00,,,0.00,Wunderground v.1.15,2013-08-19 22:45:00,
2013-08-19 17:47:00,91.8,59.4,29.81,ESE,102,3.0,12.0,34,0.00,,,0.00,Wunderground v.1.15,2013-08-19 22:47:00,
2013-08-19 17:48:00,91.6,58.4,29.81,ESE,119,4.0,12.0,33,0.00,,,0.00,Wunderground v.1.15,2013-08-19 22:48:00,
2013-08-19 17:50:00,91.4,58.3,29.81,East,100,4.0,4.0,33,0.00,,,0.00,Wunderground v.1.15,2013-08-19 22:50:00,
2013-08-19 17:52:00,91.2,58.9,29.81,East,100,4.0,4.0,34,0.00,,,0.00,Wunderground v.1.15,2013-08-19 22:52:00,
2013-08-19 17:53:00,91.2,58.9,29.81,East,100,4.0,4.0,34,0.00,,,0.00,Wunderground v.1.15,2013-08-19 22:53:00,
2013-08-19 17:55:00,91.2,58.9,29.81,NE,52,4.0,4.0,34,0.00,,,0.00,Wunderground v.1.15,2013-08-19 22:55:00,
2013-08-19 17:56:00,91.2,58.9,29.81,NE,40,3.0,4.0,34,0.00,,,0.00,Wunderground v.1.15,2013-08-19 22:56:00,
2013-08-19 17:58:00,91.2,58.9,29.81,ENE,65,2.0,4.0,34,0.00,,,0.00,Wunderground v.1.15,2013-08-19 22:58:00,
2013-08-19 17:59:00,91.4,59.1,29.81,SE,127,2.0,4.0,34,0.00,,,0.00,Wunderground v.1.15,2013-08-19 22:59:00,
2013-08-19 18:01:00,91.6,58.4,29.81,SE,127,1.0,1.0,33,0.00,,,0.00,Wunderground v.1.15,2013-08-19 23:01:00,
2013-08-19 18:03:00,91.8,58.6,29.81,SE,124,2.0,7.0,33,0.00,,,0.00,Wunderground v.1.15,2013-08-19 23:03:00,
2013-08-19 18:04:00,91.8,57.7,29.81,ESE,109,2.0,7.0,32,0.00,,,0.00,Wunderground v.1.15,2013-08-19 23:04:00,
2013-08-19 18:05:00,91.8,58.6,29.81,ESE,120,2.0,7.0,33,0.00,,,0.00,Wunderground v.1.15,2013-08-19 23:05:00,
2013-08-19 18:06:00,91.8,57.7,29.81,SE,127,3.0,7.0,32,0.00,,,0.00,Wunderground v.1.15,2013-08-19 23:06:00,
2013-08-19 18:08:00,91.8,57.7,29.81,ESE,119,3.0,7.0,32,0.00,,,0.00,Wunderground v.1.15,2013-08-19 23:08:00,
2013-08-19 18:11:00,92.1,58.9,29.81,NE,55,3.0,3.0,33,0.00,,,0.00,Wunderground v.1.15,2013-08-19 23:11:00,
2013-08-19 18:13:00,92.1,58.0,29.81,SE,130,3.0,5.0,32,0.00,,,0.00,Wunderground v.1.15,2013-08-19 23:13:00,
2013-08-19 18:15:00,92.1,58.0,29.81,SE,127,2.0,5.0,32,0.00,,,0.00,Wunderground v.1.15,2013-08-19 23:15:00,
2013-08-19 18:17:00,92.1,58.0,29.81,East,86,1.0,5.0,32,0.00,,,0.00,Wunderground v.1.15,2013-08-19 23:17:00,
2013-08-19 18:19:00,91.8,57.7,29.81,East,97,2.0,5.0,32,0.00,,,0.00,Wunderground v.1.15,2013-08-19 23:19:00,
2013-08-19 18:22:00,91.6,57.6,29.81,East,99,2.0,2.0,32,0.00,,,0.00,Wunderground v.1.15,2013-08-19 23:22:00,
2013-08-19 18:24:00,91.8,57.7,29.81,ESE,109,2.0,10.0,32,0.00,,,0.00,Wunderground v.1.15,2013-08-19 23:24:00,
2013-08-19 18:26:00,91.6,57.6,29.81,East,95,3.0,10.0,32,0.00,,,0.00,Wunderground v.1.15,2013-08-19 23:26:00,
2013-08-19 18:28:00,91.6,57.6,29.81,SE,134,3.0,10.0,32,0.00,,,0.00,Wunderground v.1.15,2013-08-19 23:28:00,
2013-08-19 18:29:00,91.6,57.6,29.81,ESE,103,3.0,10.0,32,0.00,,,0.00,Wunderground v.1.15,2013-08-19 23:29:00,
2013-08-19 18:32:00,91.4,57.4,29.81,East,99,3.0,3.0,32,0.00,,,0.00,Wunderground v.1.15,2013-08-19 23:32:00,
2013-08-19 18:33:00,91.4,57.4,29.81,East,99,3.0,3.0,32,0.00,,,0.00,Wunderground v.1.15,2013-08-19 23:33:00,
2013-08-19 18:34:00,91.4,58.3,29.81,East,99,3.0,3.0,33,0.00,,,0.00,Wunderground v.1.15,2013-08-19 23:34:00,
2013-08-19 18:35:00,91.4,57.4,29.81,East,99,2.0,3.0,32,0.00,,,0.00,Wunderground v.1.15,2013-08-19 23:35:00,
2013-08-19 18:38:00,91.6,57.6,29.81,East,83,1.0,7.0,32,0.00,,,0.00,Wunderground v.1.15,2013-08-19 23:38:00,
2013-08-19 18:40:00,91.6,57.6,29.81,ESE,117,1.0,7.0,32,0.00,,,0.00,Wunderground v.1.15,2013-08-19 23:40:00,
2013-08-19 18:42:00,91.4,56.5,29.81,ESE,110,1.0,6.0,31,0.00,,,0.00,Wunderground v.1.15,2013-08-19 23:42:00,
2013-08-19 18:43:00,91.4,56.5,29.81,East,100,2.0,6.0,31,0.00,,,0.00,Wunderground v.1.15,2013-08-19 23:43:00,
2013-08-19 18:46:00,91.2,57.2,29.81,ESE,107,3.0,6.0,32,0.00,,,0.00,Wunderground v.1.15,2013-08-19 23:46:00,
2013-08-19 18:47:00,91.0,57.0,29.81,ESE,107,3.0,6.0,32,0.00,,,0.00,Wunderground v.1.15,2013-08-19 23:47:00,
2013-08-19 18:50:00,91.0,57.0,29.81,SE,136,3.0,7.0,32,0.00,,,0.00,Wunderground v.1.15,2013-08-19 23:50:00,
2013-08-19 18:52:00,91.0,57.0,29.81,ESE,117,3.0,8.0,32,0.00,,,0.00,Wunderground v.1.15,2013-08-19 23:52:00,
2013-08-19 18:54:00,91.0,56.2,29.81,SE,127,3.0,8.0,31,0.00,,,0.00,Wunderground v.1.15,2013-08-19 23:54:00,
2013-08-19 18:56:00,91.0,57.0,29.81,SE,133,3.0,8.0,32,0.00,,,0.00,Wunderground v.1.15,2013-08-19 23:56:00,
2013-08-19 18:57:00,91.0,57.0,29.81,SE,144,3.0,8.0,32,0.00,,,0.00,Wunderground v.1.15,2013-08-19 23:57:00,
2013-08-19 18:59:00,91.0,57.0,29.81,SE,137,3.0,8.0,32,0.00,,,0.00,Wunderground v.1.15,2013-08-19 23:59:00,
2013-08-19 19:00:00,90.7,56.8,29.81,ESE,123,3.0,7.0,32,0.00,,,0.00,Wunderground v.1.15,2013-08-20 00:00:00,
2013-08-19 19:02:00,90.7,56.8,29.80,East,97,4.0,7.0,32,0.00,,,0.00,Wunderground v.1.15,2013-08-20 00:02:00,
2013-08-19 19:04:00,90.7,56.8,29.80,ESE,110,3.0,7.0,32,0.00,,,0.00,Wunderground v.1.15,2013-08-20 00:04:00,
2013-08-19 19:05:00,90.7,56.8,29.80,ESE,104,3.0,7.0,32,0.00,,,0.00,Wunderground v.1.15,2013-08-20 00:05:00,
2013-08-19 19:07:00,90.7,56.8,29.80,ESE,104,3.0,7.0,32,0.00,,,0.00,Wunderground v.1.15,2013-08-20 00:07:00,
2013-08-19 19:09:00,90.7,56.8,29.80,ESE,106,3.0,7.0,32,0.00,,,0.00,Wunderground v.1.15,2013-08-20 00:09:00,
2013-08-19 19:10:00,90.7,56.8,29.80,SE,124,3.0,3.0,32,0.00,,,0.00,Wunderground v.1.15,2013-08-20 00:10:00,
2013-08-19 19:11:00,90.7,56.8,29.80,SE,124,3.0,3.0,32,0.00,,,0.00,Wunderground v.1.15,2013-08-20 00:11:00,
2013-08-19 19:15:00,90.7,56.8,29.80,ESE,107,2.0,3.0,32,0.00,,,0.00,Wunderground v.1.15,2013-08-20 00:15:00,
2013-08-19 19:16:00,90.7,56.8,29.80,ESE,107,2.0,3.0,32,0.00,,,0.00,Wunderground v.1.15,2013-08-20 00:16:00,
2013-08-19 19:17:00,90.7,56.8,29.80,ESE,106,2.0,3.0,32,0.00,,,0.00,Wunderground v.1.15,2013-08-20 00:17:00,
2013-08-19 19:18:00,90.7,56.8,29.80,ESE,102,2.0,3.0,32,0.00,,,0.00,Wunderground v.1.15,2013-08-20 00:18:00,
2013-08-19 19:20:00,90.5,56.6,29.80,ESE,102,2.0,2.0,32,0.00,,,0.00,Wunderground v.1.15,2013-08-20 00:20:00,
2013-08-19 19:22:00,90.5,56.6,29.80,ESE,103,2.0,5.0,32,0.00,,,0.00,Wunderground v.1.15,2013-08-20 00:22:00,
2013-08-19 19:23:00,90.5,56.6,29.80,ESE,103,2.0,5.0,32,0.00,,,0.00,Wunderground v.1.15,2013-08-20 00:23:00,
2013-08-19 19:25:00,90.5,56.6,29.80,ESE,103,2.0,5.0,32,0.00,,,0.00,Wunderground v.1.15,2013-08-20 00:25:00,
2013-08-19 19:28:00,90.3,56.4,29.80,ESE,106,2.0,5.0,32,0.00,,,0.00,Wunderground v.1.15,2013-08-20 00:28:00,
2013-08-19 19:32:00,90.3,56.4,29.80,ESE,117,2.0,7.0,32,0.00,,,0.00,Wunderground v.1.15,2013-08-20 00:32:00,
2013-08-19 19:33:00,90.3,56.4,29.80,ESE,117,2.0,7.0,32,0.00,,,0.00,Wunderground v.1.15,2013-08-20 00:33:00,
2013-08-19 19:36:00,90.1,57.1,29.80,ESE,107,2.0,7.0,33,0.00,,,0.00,Wunderground v.1.15,2013-08-20 00:36:00,
2013-08-19 19:38:00,90.1,57.1,29.80,ESE,110,2.0,7.0,33,0.00,,,0.00,Wunderground v.1.15,2013-08-20 00:38:00,
2013-08-19 19:41:00,89.9,56.9,29.80,SSE,154,2.0,2.0,33,0.00,,,0.00,Wunderground v.1.15,2013-08-20 00:41:00,
2013-08-19 19:42:00,89.9,56.9,29.80,SE,136,2.0,2.0,33,0.00,,,0.00,Wunderground v.1.15,2013-08-20 00:42:00,
2013-08-19 19:45:00,89.9,56.9,29.80,SE,136,2.0,2.0,33,0.00,,,0.00,Wunderground v.1.15,2013-08-20 00:45:00,
2013-08-19 19:47:00,89.9,56.9,29.80,SE,136,1.0,2.0,33,0.00,,,0.00,Wunderground v.1.15,2013-08-20 00:47:00,
2013-08-19 19:48:00,89.7,56.8,29.80,SE,136,1.0,2.0,33,0.00,,,0.00,Wunderground v.1.15,2013-08-20 00:48:00,
2013-08-19 19:50:00,89.7,57.6,29.80,SE,136,1.0,1.0,34,0.00,,,0.00,Wunderground v.1.15,2013-08-20 00:50:00,
2013-08-19 19:51:00,89.5,57.4,29.80,SE,136,1.0,1.0,34,0.00,,,0.00,Wunderground v.1.15,2013-08-20 00:51:00,
2013-08-19 19:52:00,89.5,57.4,29.80,SE,136,0.0,1.0,34,0.00,,,0.00,Wunderground v.1.15,2013-08-20 00:52:00,
2013-08-19 19:56:00,89.3,57.3,29.80,SE,136,0.0,1.0,34,0.00,,,0.00,Wunderground v.1.15,2013-08-20 00:56:00,
2013-08-19 19:57:00,89.3,57.3,29.80,SE,136,0.0,1.0,34,0.00,,,0.00,Wunderground v.1.15,2013-08-20 00:57:00,
2013-08-19 20:00:00,89.0,57.0,29.80,SE,136,0.0,1.0,34,0.00,,,0.00,Wunderground v.1.15,2013-08-20 01:00:00,
2013-08-19 20:01:00,89.0,57.0,29.80,SE,136,0.0,1.0,34,0.00,,,0.00,Wunderground v.1.15,2013-08-20 01:01:00,
2013-08-19 20:02:00,88.8,57.6,29.80,SE,136,0.0,1.0,35,0.00,,,0.00,Wunderground v.1.15,2013-08-20 01:02:00,
2013-08-19 20:03:00,88.8,57.6,29.80,SE,136,0.0,1.0,35,0.00,,,0.00,Wunderground v.1.15,2013-08-20 01:03:00,
2013-08-19 20:06:00,88.8,57.6,29.80,SE,136,0.0,1.0,35,0.00,,,0.00,Wunderground v.1.15,2013-08-20 01:06:00,
2013-08-19 20:08:00,88.6,57.4,29.80,SE,136,0.0,1.0,35,0.00,,,0.00,Wunderground v.1.15,2013-08-20 01:08:00,
2013-08-19 20:11:00,88.6,57.4,29.80,SE,136,0.0,0.0,35,0.00,,,0.00,Wunderground v.1.15,2013-08-20 01:11:00,
2013-08-19 20:14:00,88.4,57.3,29.80,SE,136,0.0,0.0,35,0.00,,,0.00,Wunderground v.1.15,2013-08-20 01:14:00,
2013-08-19 20:15:00,88.4,57.3,29.80,SE,136,0.0,0.0,35,0.00,,,0.00,Wunderground v.1.15,2013-08-20 01:15:00,
2013-08-19 20:16:00,88.4,57.3,29.80,SE,136,0.0,0.0,35,0.00,,,0.00,Wunderground v.1.15,2013-08-20 01:16:00,
2013-08-19 20:18:00,88.2,57.1,29.80,SE,136,0.0,0.0,35,0.00,,,0.00,Wunderground v.1.15,2013-08-20 01:18:00,
2013-08-19 20:19:00,88.2,57.1,29.80,SE,136,0.0,0.0,35,0.00,,,0.00,Wunderground v.1.15,2013-08-20 01:19:00,
2013-08-19 20:21:00,88.2,57.1,29.80,SE,136,0.0,0.0,35,0.00,,,0.00,Wunderground v.1.15,2013-08-20 01:21:00,
2013-08-19 20:23:00,88.0,56.9,29.80,SE,136,0.0,0.0,35,0.00,,,0.00,Wunderground v.1.15,2013-08-20 01:23:00,
2013-08-19 20:25:00,88.0,56.9,29.80,SE,136,0.0,0.0,35,0.00,,,0.00,Wunderground v.1.15,2013-08-20 01:25:00,
2013-08-19 20:26:00,87.8,56.7,29.80,SE,136,0.0,0.0,35,0.00,,,0.00,Wunderground v.1.15,2013-08-20 01:26:00,
2013-08-19 20:29:00,87.8,57.5,29.80,SE,136,0.0,0.0,36,0.00,,,0.00,Wunderground v.1.15,2013-08-20 01:29:00,
2013-08-19 20:31:00,87.6,57.3,29.80,SE,136,0.0,0.0,36,0.00,,,0.00,Wunderground v.1.15,2013-08-20 01:31:00,
2013-08-19 20:32:00,87.6,57.3,29.80,SE,136,0.0,0.0,36,0.00,,,0.00,Wunderground v.1.15,2013-08-20 01:32:00,
2013-08-19 20:34:00,87.6,57.3,29.80,SE,136,0.0,0.0,36,0.00,,,0.00,Wunderground v.1.15,2013-08-20 01:34:00,
2013-08-19 20:36:00,87.4,57.2,29.80,SE,136,0.0,0.0,36,0.00,,,0.00,Wunderground v.1.15,2013-08-20 01:36:00,
2013-08-19 20:38:00,87.4,57.2,29.80,SE,136,0.0,0.0,36,0.00,,,0.00,Wunderground v.1.15,2013-08-20 01:38:00,
2013-08-19 20:40:00,87.4,57.9,29.80,SE,136,0.0,0.0,37,0.00,,,0.00,Wunderground v.1.15,2013-08-20 01:40:00,
2013-08-19 20:41:00,87.4,57.9,29.80,SE,136,0.0,0.0,37,0.00,,,0.00,Wunderground v.1.15,2013-08-20 01:41:00,
2013-08-19 20:42:00,87.2,57.8,29.80,SE,136,0.0,0.0,37,0.00,,,0.00,Wunderground v.1.15,2013-08-20 01:42:00,
2013-08-19 20:46:00,87.0,57.6,29.80,SE,136,0.0,0.0,37,0.00,,,0.00,Wunderground v.1.15,2013-08-20 01:46:00,
2013-08-19 20:47:00,87.0,57.6,29.81,SE,136,0.0,0.0,37,0.00,,,0.00,Wunderground v.1.15,2013-08-20 01:47:00,
2013-08-19 20:49:00,87.0,58.3,29.81,SE,136,0.0,0.0,38,0.00,,,0.00,Wunderground v.1.15,2013-08-20 01:49:00,
2013-08-19 20:51:00,86.7,58.1,29.81,SE,136,0.0,0.0,38,0.00,,,0.00,Wunderground v.1.15,2013-08-20 01:51:00,
2013-08-19 20:52:00,86.7,58.1,29.81,SE,136,0.0,0.0,38,0.00,,,0.00,Wunderground v.1.15,2013-08-20 01:52:00,
2013-08-19 20:54:00,86.7,58.1,29.81,SE,136,0.0,0.0,38,0.00,,,0.00,Wunderground v.1.15,2013-08-20 01:54:00,
2013-08-19 20:57:00,86.5,57.9,29.81,SE,136,0.0,0.0,38,0.00,,,0.00,Wunderground v.1.15,2013-08-20 01:57:00,
2013-08-19 21:01:00,86.3,57.7,29.81,SE,136,0.0,0.0,38,0.00,,,0.00,Wunderground v.1.15,2013-08-20 02:01:00,
2013-08-19 21:04:00,86.1,57.5,29.81,SE,136,0.0,0.0,38,0.00,,,0.00,Wunderground v.1.15,2013-08-20 02:04:00,
2013-08-19 21:05:00,86.1,57.5,29.81,SE,136,0.0,0.0,38,0.00,,,0.00,Wunderground v.1.15,2013-08-20 02:05:00,
2013-08-19 21:06:00,86.1,57.5,29.81,SE,136,0.0,0.0,38,0.00,,,0.00,Wunderground v.1.15,2013-08-20 02:06:00,
2013-08-19 21:09:00,85.9,57.3,29.81,SE,136,0.0,0.0,38,0.00,,,0.00,Wunderground v.1.15,2013-08-20 02:09:00,
2013-08-19 21:12:00,85.9,57.3,29.81,SE,136,0.0,0.0,38,0.00,,,0.00,Wunderground v.1.15,2013-08-20 02:12:00,
2013-08-19 21:16:00,85.7,57.9,29.81,SE,136,0.0,0.0,39,0.00,,,0.00,Wunderground v.1.15,2013-08-20 02:16:00,
2013-08-19 21:17:00,85.7,57.2,29.81,SE,136,0.0,0.0,38,0.00,,,0.00,Wunderground v.1.15,2013-08-20 02:17:00,
2013-08-19 21:18:00,85.7,57.9,29.81,SE,136,0.0,0.0,39,0.00,,,0.00,Wunderground v.1.15,2013-08-20 02:18:00,
2013-08-19 21:23:00,85.5,58.4,29.81,SE,136,0.0,0.0,40,0.00,,,0.00,Wunderground v.1.15,2013-08-20 02:23:00,
2013-08-19 21:24:00,85.3,58.2,29.81,SE,136,0.0,0.0,40,0.00,,,0.00,Wunderground v.1.15,2013-08-20 02:24:00,
2013-08-19 21:27:00,85.1,57.4,29.81,SE,136,0.0,0.0,39,0.00,,,0.00,Wunderground v.1.15,2013-08-20 02:27:00,
2013-08-19 21:29:00,85.1,57.4,29.81,SE,136,0.0,0.0,39,0.00,,,0.00,Wunderground v.1.15,2013-08-20 02:29:00,
2013-08-19 21:31:00,84.9,57.2,29.81,SE,136,0.0,0.0,39,0.00,,,0.00,Wunderground v.1.15,2013-08-20 02:31:00,
2013-08-19 21:32:00,84.9,57.2,29.81,SE,136,0.0,0.0,39,0.00,,,0.00,Wunderground v.1.15,2013-08-20 02:32:00,
2013-08-19 21:34:00,84.9,57.9,29.81,SE,136,0.0,0.0,40,0.00,,,0.00,Wunderground v.1.15,2013-08-20 02:34:00,
2013-08-19 21:36:00,84.7,57.7,29.81,SE,136,0.0,0.0,40,0.00,,,0.00,Wunderground v.1.15,2013-08-20 02:36:00,
2013-08-19 21:37:00,84.7,57.7,29.81,SE,136,0.0,0.0,40,0.00,,,0.00,Wunderground v.1.15,2013-08-20 02:37:00,
2013-08-19 21:39:00,84.5,57.5,29.81,SE,136,0.0,0.0,40,0.00,,,0.00,Wunderground v.1.15,2013-08-20 02:39:00,
2013-08-19 21:41:00,84.5,57.5,29.81,SE,136,0.0,0.0,40,0.00,,,0.00,Wunderground v.1.15,2013-08-20 02:41:00,
2013-08-19 21:42:00,84.3,57.3,29.81,SE,136,0.0,0.0,40,0.00,,,0.00,Wunderground v.1.15,2013-08-20 02:42:00,
2013-08-19 21:44:00,84.3,57.3,29.81,SE,136,0.0,0.0,40,0.00,,,0.00,Wunderground v.1.15,2013-08-20 02:44:00,
2013-08-19 21:45:00,84.3,57.3,29.81,SE,136,0.0,0.0,40,0.00,,,0.00,Wunderground v.1.15,2013-08-20 02:45:00,
2013-08-19 21:48:00,84.1,57.2,29.81,SE,136,0.0,1.0,40,0.00,,,0.00,Wunderground v.1.15,2013-08-20 02:48:00,
2013-08-19 21:49:00,84.1,57.2,29.81,SE,136,0.0,1.0,40,0.00,,,0.00,Wunderground v.1.15,2013-08-20 02:49:00,
2013-08-19 21:51:00,84.1,57.2,29.81,SE,136,0.0,0.0,40,0.00,,,0.00,Wunderground v.1.15,2013-08-20 02:51:00,
2013-08-19 21:54:00,84.0,57.8,29.81,SE,136,0.0,0.0,41,0.00,,,0.00,Wunderground v.1.15,2013-08-20 02:54:00,
2013-08-19 21:56:00,84.0,57.8,29.81,SE,136,0.0,0.0,41,0.00,,,0.00,Wunderground v.1.15,2013-08-20 02:56:00,
2013-08-19 21:58:00,84.0,57.8,29.81,SE,136,0.0,1.0,41,0.00,,,0.00,Wunderground v.1.15,2013-08-20 02:58:00,
2013-08-19 22:01:00,83.8,57.6,29.81,SE,136,0.0,0.0,41,0.00,,,0.00,Wunderground v.1.15,2013-08-20 03:01:00,
2013-08-19 22:03:00,83.8,57.6,29.82,SE,136,0.0,0.0,41,0.00,,,0.00,Wunderground v.1.15,2013-08-20 03:03:00,
2013-08-19 22:06:00,83.6,57.4,29.82,SE,136,0.0,0.0,41,0.00,,,0.00,Wunderground v.1.15,2013-08-20 03:06:00,
2013-08-19 22:07:00,83.6,57.4,29.82,SE,136,0.0,0.0,41,0.00,,,0.00,Wunderground v.1.15,2013-08-20 03:07:00,
2013-08-19 22:09:00,83.4,57.2,29.82,SE,136,0.0,0.0,41,0.00,,,0.00,Wunderground v.1.15,2013-08-20 03:09:00,
2013-08-19 22:11:00,83.4,57.2,29.82,SE,136,0.0,0.0,41,0.00,,,0.00,Wunderground v.1.15,2013-08-20 03:11:00,
2013-08-19 22:12:00,83.4,57.2,29.82,SE,136,0.0,0.0,41,0.00,,,0.00,Wunderground v.1.15,2013-08-20 03:12:00,
2013-08-19 22:14:00,83.4,57.9,29.82,SE,136,0.0,0.0,42,0.00,,,0.00,Wunderground v.1.15,2013-08-20 03:14:00,
2013-08-19 22:17:00,83.2,57.7,29.82,SE,136,0.0,0.0,42,0.00,,,0.00,Wunderground v.1.15,2013-08-20 03:17:00,
2013-08-19 22:19:00,83.2,57.7,29.82,SE,136,0.0,0.0,42,0.00,,,0.00,Wunderground v.1.15,2013-08-20 03:19:00,
2013-08-19 22:22:00,83.0,57.5,29.82,SE,136,0.0,0.0,42,0.00,,,0.00,Wunderground v.1.15,2013-08-20 03:22:00,
2013-08-19 22:24:00,83.0,57.5,29.82,SE,136,0.0,0.0,42,0.00,,,0.00,Wunderground v.1.15,2013-08-20 03:24:00,
2013-08-19 22:26:00,82.8,57.4,29.82,SE,136,0.0,0.0,42,0.00,,,0.00,Wunderground v.1.15,2013-08-20 03:26:00,
2013-08-19 22:29:00,82.8,57.4,29.82,SE,136,0.0,0.0,42,0.00,,,0.00,Wunderground v.1.15,2013-08-20 03:29:00,
2013-08-19 22:31:00,82.8,57.4,29.82,SE,136,0.0,0.0,42,0.00,,,0.00,Wunderground v.1.15,2013-08-20 03:31:00,
2013-08-19 22:32:00,82.8,57.4,29.83,SE,136,0.0,0.0,42,0.00,,,0.00,Wunderground v.1.15,2013-08-20 03:32:00,
2013-08-19 22:34:00,82.6,57.2,29.83,SE,136,0.0,0.0,42,0.00,,,0.00,Wunderground v.1.15,2013-08-20 03:34:00,
2013-08-19 22:35:00,82.6,57.8,29.83,SE,136,0.0,0.0,43,0.00,,,0.00,Wunderground v.1.15,2013-08-20 03:35:00,
2013-08-19 22:38:00,82.6,57.2,29.83,SE,136,0.0,0.0,42,0.00,,,0.00,Wunderground v.1.15,2013-08-20 03:38:00,
2013-08-19 22:39:00,82.6,57.2,29.83,SE,136,0.0,0.0,42,0.00,,,0.00,Wunderground v.1.15,2013-08-20 03:39:00,
2013-08-19 22:42:00,82.4,57.7,29.83,SE,136,0.0,0.0,43,0.00,,,0.00,Wunderground v.1.15,2013-08-20 03:42:00,
2013-08-19 22:44:00,82.4,57.7,29.83,SE,136,0.0,2.0,43,0.00,,,0.00,Wunderground v.1.15,2013-08-20 03:44:00,
2013-08-19 22:45:00,82.4,57.7,29.83,ESE,112,0.0,7.0,43,0.00,,,0.00,Wunderground v.1.15,2013-08-20 03:45:00,
2013-08-19 22:47:00,83.0,58.8,29.83,ESE,120,3.0,7.0,44,0.00,,,0.00,Wunderground v.1.15,2013-08-20 03:47:00,
2013-08-19 22:48:00,83.0,59.5,29.83,ESE,119,3.0,7.0,45,0.00,,,0.00,Wunderground v.1.15,2013-08-20 03:48:00,
2013-08-19 22:51:00,83.0,60.7,29.83,SE,127,6.0,6.0,47,0.00,,,0.00,Wunderground v.1.15,2013-08-20 03:51:00,
2013-08-19 22:52:00,83.0,61.3,29.83,SE,133,7.0,11.0,48,0.00,,,0.00,Wunderground v.1.15,2013-08-20 03:52:00,
2013-08-19 22:53:00,82.8,61.1,29.83,SE,131,8.0,11.0,48,0.00,,,0.00,Wunderground v.1.15,2013-08-20 03:53:00,
2013-08-19 22:57:00,82.6,61.5,29.83,ESE,123,7.0,11.0,49,0.00,,,0.00,Wunderground v.1.15,2013-08-20 03:57:00,
2013-08-19 22:58:00,82.6,61.5,29.83,SE,144,7.0,11.0,49,0.00,,,0.00,Wunderground v.1.15,2013-08-20 03:58:00,
2013-08-19 23:01:00,82.6,61.5,29.83,SSE,147,5.0,5.0,49,0.00,,,0.00,Wunderground v.1.15,2013-08-20 04:01:00,
2013-08-19 23:03:00,82.4,61.9,29.84,SE,141,4.0,5.0,50,0.00,,,0.00,Wunderground v.1.15,2013-08-20 04:03:00,
2013-08-19 23:04:00,82.4,61.9,29.84,SE,143,4.0,5.0,50,0.00,,,0.00,Wunderground v.1.15,2013-08-20 04:04:00,
2013-08-19 23:06:00,82.4,61.9,29.84,ESE,117,4.0,6.0,50,0.00,,,0.00,Wunderground v.1.15,2013-08-20 04:06:00,
2013-08-19 23:09:00,82.2,61.7,29.84,SSE,167,4.0,7.0,50,0.00,,,0.00,Wunderground v.1.15,2013-08-20 04:09:00,
2013-08-19 23:11:00,82.2,62.3,29.84,SE,145,4.0,6.0,51,0.00,,,0.00,Wunderground v.1.15,2013-08-20 04:11:00,
2013-08-19 23:12:00,82.2,62.3,29.84,SE,134,4.0,6.0,51,0.00,,,0.00,Wunderground v.1.15,2013-08-20 04:12:00,
2013-08-19 23:14:00,82.0,62.1,29.84,SSE,154,4.0,6.0,51,0.00,,,0.00,Wunderground v.1.15,2013-08-20 04:14:00,
2013-08-19 23:16:00,82.0,62.6,29.84,SSE,151,4.0,6.0,52,0.00,,,0.00,Wunderground v.1.15,2013-08-20 04:16:00,
2013-08-19 23:17:00,81.8,62.5,29.84,SE,145,4.0,6.0,52,0.00,,,0.00,Wunderground v.1.15,2013-08-20 04:17:00,
2013-08-19 23:19:00,81.8,62.5,29.84,South,176,4.0,6.0,52,0.00,,,0.00,Wunderground v.1.15,2013-08-20 04:19:00,
2013-08-19 23:21:00,81.8,62.5,29.84,SE,143,4.0,4.0,52,0.00,,,0.00,Wunderground v.1.15,2013-08-20 04:21:00,
2013-08-19 23:23:00,81.6,62.3,29.84,SE,144,3.0,4.0,52,0.00,,,0.00,Wunderground v.1.15,2013-08-20 04:23:00,
2013-08-19 23:24:00,81.6,62.3,29.84,SE,145,3.0,5.0,52,0.00,,,0.00,Wunderground v.1.15,2013-08-20 04:24:00,
2013-08-19 23:25:00,81.6,62.8,29.84,SE,133,4.0,5.0,53,0.00,,,0.00,Wunderground v.1.15,2013-08-20 04:25:00,
2013-08-19 23:28:00,81.4,62.6,29.84,SE,144,3.0,5.0,53,0.00,,,0.00,Wunderground v.1.15,2013-08-20 04:28:00,
2013-08-19 23:29:00,81.4,62.6,29.84,SE,144,3.0,5.0,53,0.00,,,0.00,Wunderground v.1.15,2013-08-20 04:29:00,
2013-08-19 23:33:00,81.2,62.4,29.85,ESE,117,3.0,5.0,53,0.00,,,0.00,Wunderground v.1.15,2013-08-20 04:33:00,
2013-08-19 23:34:00,81.2,63.0,29.85,ESE,119,3.0,5.0,54,0.00,,,0.00,Wunderground v.1.15,2013-08-20 04:34:00,
2013-08-19 23:35:00,81.2,63.0,29.85,ESE,119,3.0,5.0,54,0.00,,,0.00,Wunderground v.1.15,2013-08-20 04:35:00,
2013-08-19 23:36:00,81.1,62.9,29.85,ESE,120,2.0,5.0,54,0.00,,,0.00,Wunderground v.1.15,2013-08-20 04:36:00,
2013-08-19 23:41:00,80.9,63.2,29.85,SSE,167,3.0,6.0,55,0.00,,,0.00,Wunderground v.1.15,2013-08-20 04:41:00,
2013-08-19 23:42:00,80.9,63.2,29.85,ESE,123,3.0,6.0,55,0.00,,,0.00,Wunderground v.1.15,2013-08-20 04:42:00,
2013-08-19 23:43:00,80.9,63.2,29.85,ESE,120,3.0,6.0,55,0.00,,,0.00,Wunderground v.1.15,2013-08-20 04:43:00,
2013-08-19 23:46:00,80.9,63.2,29.85,East,97,4.0,6.0,55,0.00,,,0.00,Wunderground v.1.15,2013-08-20 04:46:00,
2013-08-19 23:47:00,80.7,63.0,29.85,SE,130,4.0,6.0,55,0.00,,,0.00,Wunderground v.1.15,2013-08-20 04:47:00,
2013-08-19 23:48:00,80.7,63.0,29.85,SE,138,4.0,6.0,55,0.00,,,0.00,Wunderground v.1.15,2013-08-20 04:48:00,
2013-08-19 23:51:00,80.7,63.5,29.85,SE,140,4.0,4.0,56,0.00,,,0.00,Wunderground v.1.15,2013-08-20 04:51:00,
2013-08-19 23:52:00,80.7,63.5,29.85,SE,140,3.0,4.0,56,0.00,,,0.00,Wunderground v.1.15,2013-08-20 04:52:00,
2013-08-19 23:55:00,80.5,63.4,29.85,ESE,116,3.0,6.0,56,0.00,,,0.00,Wunderground v.1.15,2013-08-20 04:55:00,
2013-08-19 23:57:00,80.5,63.9,29.85,ESE,121,3.0,6.0,57,0.00,,,0.00,Wunderground v.1.15,2013-08-20 04:57:00,
2013-08-19 23:58:00,80.5,63.9,29.85,SE,141,2.0,6.0,57,0.00,,,0.00,Wunderground v.1.15,2013-08-20 04:58:00,
2013-08-19 23:59:00,80.5,64.4,29.85,SE,140,3.0,6.0,58,0.00,,,0.00,Wunderground v.1.15,2013-08-20 04:59:00,